Darstellungsparameter: Aktuell verwendete Einstellungen:
Skalierung der Graphiken ... ?
xyx+y,   Skalierungsfaktor:      Skalierung: Modus: x, Faktor: 1
Darstellungszeitraum ... ?
Vom - - bis: - -   Zeitraum: 02.03.2003 - 09.03.2003
Min/Max/Avg-Anzeige ... ?
Zeige MMA aktuell
Zeige MMA Monat
Zeige MMA alles
Zeige --A aktuell
Zeige --A Monat
Zeige --A alles
Keine MMA-Anzeige
MMA:
Average (ber die Originaldaten)
MMA-Basis: 02.03.2003 - 09.03.2003
Quicknavigation für Darstellung... ?
Tage:      1T, 2T, 3T, 5T -1T -2T -3T -5T +1T +2T +3T +5T
Wochen: 1W, 2W, 3W -1W -2W -3W +1W +2W +3W
Monate: 1M, 3M, 6M -1M -3M -6M +1M +3M +6M
Jahre:    1J, 3J, 5J, 10J -1J -3J -5J -10J +1J +3J +5J +10J
Nutze für die Darstellung ... ?
Originaldaten oder Mittelwerte auf ...
Stundenbasis Tagesbasis Wochenbasis
Monatsbasis Jahresbasis      Datenbasis: Original-Daten
Darstellen als:
Statistik (Auto) Statistik J:M      Darstellung:
Zur Graphik,    zurück zur Übersicht aller Sensoren.
 
Tabellarische Datenbersicht: ?
 
Sensor: Nr:Datum:Temp:Abs-Feuchte:Windchill:Wind:
Aussen-T/F 1 02-03-2003 00:02:11 8 C 7.28 g/m*3 8 C 0 km/h
2 02-03-2003 00:02:37 8 C 7.28 g/m*3 8 C 0 km/h
3 02-03-2003 00:08:11 8.1 C 7.32 g/m*3 8.1 C 0 km/h
4 02-03-2003 00:08:37 8.1 C 7.32 g/m*3 8.1 C 0 km/h
5 02-03-2003 00:14:11 8 C 7.36 g/m*3 8 C 0 km/h
6 02-03-2003 00:14:37 8 C 7.36 g/m*3 8 C 0 km/h
7 02-03-2003 00:20:11 7.9 C 7.39 g/m*3 7.9 C 0 km/h
8 02-03-2003 00:20:37 7.9 C 7.39 g/m*3 7.9 C 0 km/h
9 02-03-2003 00:26:11 7.9 C 7.39 g/m*3 7.9 C 0 km/h
10 02-03-2003 00:26:37 7.9 C 7.39 g/m*3 7.9 C 0 km/h
11 02-03-2003 00:32:11 7.9 C 7.39 g/m*3 7.9 C 0 km/h
12 02-03-2003 00:32:37 7.9 C 7.39 g/m*3 7.9 C 0 km/h
13 02-03-2003 00:38:11 7.8 C 7.35 g/m*3 7.8 C 0 km/h
14 02-03-2003 00:38:37 7.8 C 7.35 g/m*3 7.8 C 0 km/h
15 02-03-2003 00:44:11 7.8 C 7.35 g/m*3 7.8 C 0 km/h
16 02-03-2003 00:44:37 7.8 C 7.35 g/m*3 7.8 C 0 km/h
17 02-03-2003 00:50:11 7.8 C 7.43 g/m*3 7.8 C 0 km/h
18 02-03-2003 00:50:37 7.8 C 7.43 g/m*3 7.8 C 0 km/h
19 02-03-2003 00:56:11 7.9 C 7.39 g/m*3 7.9 C 0 km/h
20 02-03-2003 00:56:37 7.9 C 7.39 g/m*3 7.9 C 0 km/h
21 02-03-2003 01:02:11 7.9 C 7.39 g/m*3 7.9 C 0 km/h
22 02-03-2003 01:02:37 7.9 C 7.39 g/m*3 7.9 C 0 km/h
23 02-03-2003 01:08:11 7.8 C 7.35 g/m*3 7.8 C 0 km/h
24 02-03-2003 01:08:37 7.8 C 7.35 g/m*3 7.8 C 0 km/h
25 02-03-2003 01:14:11 7.8 C 7.35 g/m*3 7.8 C 0 km/h
Sensor: Nr:Datum:Temp:Abs-Feuchte:Windchill:Wind:
Aussen-T/F 26 02-03-2003 01:14:37 7.8 C 7.35 g/m*3 7.8 C 0 km/h
27 02-03-2003 01:20:11 7.8 C 7.43 g/m*3 7.8 C 0 km/h
28 02-03-2003 01:20:37 7.8 C 7.43 g/m*3 7.8 C 0 km/h
29 02-03-2003 01:26:11 7.7 C 7.38 g/m*3 7.7 C 0 km/h
30 02-03-2003 01:26:37 7.7 C 7.38 g/m*3 7.7 C 0 km/h
31 02-03-2003 01:32:11 7.8 C 7.43 g/m*3 7.8 C 0 km/h
32 02-03-2003 01:32:37 7.8 C 7.43 g/m*3 7.8 C 0 km/h
33 02-03-2003 01:38:11 7.8 C 7.43 g/m*3 7.8 C 0 km/h
34 02-03-2003 01:38:37 7.8 C 7.43 g/m*3 7.8 C 0 km/h
35 02-03-2003 01:44:11 7.8 C 7.43 g/m*3 7.8 C 0 km/h
36 02-03-2003 01:44:37 7.8 C 7.43 g/m*3 7.8 C 0 km/h
37 02-03-2003 01:50:11 7.7 C 7.38 g/m*3 7.7 C 0 km/h
38 02-03-2003 01:50:37 7.7 C 7.38 g/m*3 7.7 C 0 km/h
39 02-03-2003 01:56:11 7.8 C 7.43 g/m*3 7.8 C 0 km/h
40 02-03-2003 01:56:37 7.8 C 7.43 g/m*3 7.8 C 0 km/h
41 02-03-2003 02:02:11 7.8 C 7.43 g/m*3 7.8 C 0 km/h
42 02-03-2003 02:02:37 7.8 C 7.43 g/m*3 7.8 C 0 km/h
43 02-03-2003 02:08:11 7.7 C 7.38 g/m*3 7.7 C 0 km/h
44 02-03-2003 02:08:37 7.7 C 7.38 g/m*3 7.7 C 0 km/h
45 02-03-2003 02:14:11 7.6 C 7.33 g/m*3 7.6 C 0 km/h
46 02-03-2003 02:14:37 7.6 C 7.33 g/m*3 7.6 C 0 km/h
47 02-03-2003 02:20:11 7.6 C 7.33 g/m*3 7.6 C 0 km/h
48 02-03-2003 02:20:37 7.6 C 7.33 g/m*3 7.6 C 0 km/h
49 02-03-2003 02:26:11 7.6 C 7.33 g/m*3 7.6 C 0 km/h
50 02-03-2003 02:26:37 7.6 C 7.33 g/m*3 7.6 C 0 km/h
Sensor: Nr:Datum:Temp:Abs-Feuchte:Windchill:Wind:
Aussen-T/F 51 02-03-2003 02:32:11 7.7 C 7.38 g/m*3 7.7 C 0 km/h
52 02-03-2003 02:32:37 7.7 C 7.38 g/m*3 7.7 C 0 km/h
53 02-03-2003 02:38:11 7.8 C 7.43 g/m*3 7.8 C 0 km/h
54 02-03-2003 02:38:37 7.8 C 7.43 g/m*3 7.8 C 0 km/h
55 02-03-2003 02:44:11 7.7 C 7.38 g/m*3 7.7 C 0 km/h
56 02-03-2003 02:44:37 7.7 C 7.38 g/m*3 7.7 C 0 km/h
57 02-03-2003 02:50:11 7.7 C 7.38 g/m*3 7.7 C 0 km/h
58 02-03-2003 02:50:37 7.7 C 7.38 g/m*3 7.7 C 0 km/h
59 02-03-2003 02:56:11 7.8 C 7.35 g/m*3 7.8 C 0 km/h
60 02-03-2003 02:56:37 7.8 C 7.35 g/m*3 7.8 C 0 km/h
61 02-03-2003 03:02:11 7.8 C 7.35 g/m*3 7.8 C 0 km/h
62 02-03-2003 03:02:37 7.8 C 7.35 g/m*3 7.8 C 0 km/h
63 02-03-2003 03:08:11 8 C 7.36 g/m*3 8 C 0 km/h
64 02-03-2003 03:08:37 8 C 7.36 g/m*3 8 C 0 km/h
65 02-03-2003 03:14:11 7.8 C 7.26 g/m*3 7.8 C 0 km/h
66 02-03-2003 03:14:37 7.8 C 7.26 g/m*3 7.8 C 0 km/h
67 02-03-2003 03:20:11 7.7 C 7.22 g/m*3 7.7 C 0 km/h
68 02-03-2003 03:20:37 7.7 C 7.22 g/m*3 7.7 C 0 km/h
69 02-03-2003 03:26:11 7.7 C 7.22 g/m*3 7.7 C 0 km/h
70 02-03-2003 03:26:37 7.7 C 7.22 g/m*3 7.7 C 0 km/h
71 02-03-2003 03:32:11 7.7 C 7.3 g/m*3 7.7 C 0 km/h
72 02-03-2003 03:32:37 7.7 C 7.3 g/m*3 7.7 C 0 km/h
73 02-03-2003 03:38:11 7.7 C 7.3 g/m*3 7.7 C 0 km/h
74 02-03-2003 03:38:37 7.7 C 7.3 g/m*3 7.7 C 0 km/h
75 02-03-2003 03:44:11 7.6 C 7.25 g/m*3 7.6 C 0 km/h
Sensor: Nr:Datum:Temp:Abs-Feuchte:Windchill:Wind:
Aussen-T/F 76 02-03-2003 03:44:37 7.6 C 7.25 g/m*3 7.6 C 0 km/h
77 02-03-2003 03:50:11 7.6 C 7.25 g/m*3 7.6 C 0 km/h
78 02-03-2003 03:50:37 7.6 C 7.25 g/m*3 7.6 C 0 km/h
79 02-03-2003 03:56:11 7.5 C 7.2 g/m*3 7.5 C 0 km/h
80 02-03-2003 03:56:37 7.5 C 7.2 g/m*3 7.5 C 0 km/h
81 02-03-2003 04:02:11 7.5 C 7.2 g/m*3 7.5 C 0 km/h
82 02-03-2003 04:02:37 7.5 C 7.2 g/m*3 7.5 C 0 km/h
83 02-03-2003 04:08:11 7.5 C 7.2 g/m*3 7.5 C 0 km/h
84 02-03-2003 04:08:37 7.5 C 7.2 g/m*3 7.5 C 0 km/h
85 02-03-2003 04:14:11 7.6 C 7.25 g/m*3 7.6 C 0 km/h
86 02-03-2003 04:14:37 7.6 C 7.25 g/m*3 7.6 C 0 km/h
87 02-03-2003 04:20:11 7.6 C 7.25 g/m*3 7.6 C 0 km/h
88 02-03-2003 04:20:37 7.6 C 7.25 g/m*3 7.6 C 0 km/h
89 02-03-2003 04:26:11 7.5 C 7.12 g/m*3 7.5 C 0 km/h
90 02-03-2003 04:26:37 7.5 C 7.12 g/m*3 7.5 C 0 km/h
91 02-03-2003 04:32:11 7.5 C 7.2 g/m*3 7.5 C 0 km/h
92 02-03-2003 04:32:37 7.5 C 7.2 g/m*3 7.5 C 0 km/h
93 02-03-2003 04:38:11 7.5 C 7.2 g/m*3 7.5 C 0 km/h
94 02-03-2003 04:38:37 7.5 C 7.2 g/m*3 7.5 C 0 km/h
95 02-03-2003 04:44:11 7.4 C 7.16 g/m*3 7.4 C 0 km/h
96 02-03-2003 04:44:37 7.4 C 7.16 g/m*3 7.4 C 0 km/h
97 02-03-2003 04:50:11 7.4 C 7.16 g/m*3 7.4 C 0 km/h
98 02-03-2003 04:50:37 7.4 C 7.16 g/m*3 7.4 C 0 km/h
99 02-03-2003 04:56:11 7.4 C 7.16 g/m*3 7.4 C 0 km/h
100 02-03-2003 04:56:37 7.4 C 7.16 g/m*3 7.4 C 0 km/h
Sensor: Nr:Datum:Temp:Abs-Feuchte:Windchill:Wind:
Aussen-T/F 101 02-03-2003 05:02:11 7.5 C 7.2 g/m*3 7.5 C 0 km/h
102 02-03-2003 05:02:37 7.5 C 7.2 g/m*3 7.5 C 0 km/h
103 02-03-2003 05:08:11 7.5 C 7.2 g/m*3 7.5 C 0 km/h
104 02-03-2003 05:08:37 7.5 C 7.2 g/m*3 7.5 C 0 km/h
105 02-03-2003 05:14:11 7.5 C 7.2 g/m*3 7.5 C 0 km/h
106 02-03-2003 05:14:37 7.5 C 7.2 g/m*3 7.5 C 0 km/h
107 02-03-2003 05:20:11 7.5 C 7.2 g/m*3 7.5 C 0 km/h
108 02-03-2003 05:20:37 7.5 C 7.2 g/m*3 7.5 C 0 km/h
109 02-03-2003 05:26:11 7.4 C 7.16 g/m*3 7.4 C 0 km/h
110 02-03-2003 05:26:37 7.4 C 7.16 g/m*3 7.4 C 0 km/h
111 02-03-2003 05:32:11 7.3 C 7.11 g/m*3 7.3 C 0 km/h
112 02-03-2003 05:32:37 7.3 C 7.11 g/m*3 7.3 C 0 km/h
113 02-03-2003 05:38:11 7.3 C 7.11 g/m*3 7.3 C 0 km/h
114 02-03-2003 05:38:37 7.3 C 7.11 g/m*3 7.3 C 0 km/h
115 02-03-2003 05:44:11 7.1 C 7.02 g/m*3 7.1 C 0 km/h
116 02-03-2003 05:44:37 7.1 C 7.02 g/m*3 7.1 C 0 km/h
117 02-03-2003 05:50:11 7.1 C 7.02 g/m*3 7.1 C 0 km/h
118 02-03-2003 05:50:37 7.1 C 7.02 g/m*3 7.1 C 0 km/h
119 02-03-2003 05:56:11 7.2 C 7.14 g/m*3 7.2 C 0 km/h
120 02-03-2003 05:56:37 7.2 C 7.14 g/m*3 7.2 C 0 km/h
121 02-03-2003 06:02:11 7.3 C 7.19 g/m*3 7.3 C 0 km/h
122 02-03-2003 06:02:37 7.3 C 7.19 g/m*3 7.3 C 0 km/h
123 02-03-2003 06:08:11 7.3 C 7.19 g/m*3 7.3 C 0 km/h
124 02-03-2003 06:08:37 7.3 C 7.19 g/m*3 7.3 C 0 km/h
125 02-03-2003 06:14:11 7.2 C 7.14 g/m*3 7.2 C 0 km/h
Sensor: Nr:Datum:Temp:Abs-Feuchte:Windchill:Wind:
Aussen-T/F 126 02-03-2003 06:14:37 7.2 C 7.14 g/m*3 7.2 C 0 km/h
127 02-03-2003 06:20:11 7.2 C 7.14 g/m*3 7.2 C 0 km/h
128 02-03-2003 06:20:37 7.2 C 7.14 g/m*3 7.2 C 0 km/h
129 02-03-2003 06:26:11 7.2 C 7.14 g/m*3 7.2 C 0 km/h
130 02-03-2003 06:26:37 7.2 C 7.14 g/m*3 7.2 C 0 km/h
131 02-03-2003 06:32:11 7.2 C 7.14 g/m*3 7.2 C 0 km/h
132 02-03-2003 06:32:37 7.2 C 7.14 g/m*3 7.2 C 0 km/h
133 02-03-2003 06:38:11 7.3 C 7.19 g/m*3 7.3 C 0 km/h
134 02-03-2003 06:38:37 7.3 C 7.19 g/m*3 7.3 C 0 km/h
135 02-03-2003 06:44:11 7.4 C 7.32 g/m*3 7.4 C 0 km/h
136 02-03-2003 06:44:37 7.4 C 7.32 g/m*3 7.4 C 0 km/h
137 02-03-2003 06:50:11 7.3 C 7.27 g/m*3 7.3 C 0 km/h
138 02-03-2003 06:50:37 7.3 C 7.27 g/m*3 7.3 C 0 km/h
139 02-03-2003 06:56:11 7.3 C 7.27 g/m*3 7.3 C 0 km/h
140 02-03-2003 06:56:37 7.3 C 7.27 g/m*3 7.3 C 0 km/h
141 02-03-2003 07:02:11 7.2 C 7.14 g/m*3 7.2 C 0 km/h
142 02-03-2003 07:02:37 7.2 C 7.14 g/m*3 7.2 C 0 km/h
143 02-03-2003 07:08:11 7.3 C 7.19 g/m*3 7.3 C 0 km/h
144 02-03-2003 07:08:37 7.3 C 7.19 g/m*3 7.3 C 0 km/h
145 02-03-2003 07:14:11 7.3 C 7.27 g/m*3 7.3 C 0 km/h
146 02-03-2003 07:14:37 7.3 C 7.27 g/m*3 7.3 C 0 km/h
147 02-03-2003 07:20:11 7.4 C 7.32 g/m*3 7.4 C 0 km/h
148 02-03-2003 07:20:37 7.4 C 7.32 g/m*3 7.4 C 0 km/h
149 02-03-2003 07:26:11 7.3 C 7.27 g/m*3 7.3 C 0 km/h
150 02-03-2003 07:26:37 7.3 C 7.27 g/m*3 7.3 C 0 km/h
Sensor: Nr:Datum:Temp:Abs-Feuchte:Windchill:Wind:
Aussen-T/F 151 02-03-2003 07:32:11 7.4 C 7.32 g/m*3 7.4 C 0 km/h
152 02-03-2003 07:32:37 7.4 C 7.32 g/m*3 7.4 C 0 km/h
153 02-03-2003 07:38:11 7.3 C 7.27 g/m*3 7.3 C 0 km/h
154 02-03-2003 07:38:37 7.3 C 7.27 g/m*3 7.3 C 0 km/h
155 02-03-2003 07:44:11 7.4 C 7.32 g/m*3 7.4 C 0 km/h
156 02-03-2003 07:44:37 7.4 C 7.32 g/m*3 7.4 C 0 km/h
157 02-03-2003 07:50:11 7.4 C 7.32 g/m*3 7.4 C 0 km/h
158 02-03-2003 07:50:37 7.4 C 7.32 g/m*3 7.4 C 0 km/h
159 02-03-2003 07:56:11 7.5 C 7.36 g/m*3 7.5 C 0 km/h
160 02-03-2003 07:56:37 7.5 C 7.36 g/m*3 7.5 C 0 km/h
161 02-03-2003 08:02:11 7.5 C 7.36 g/m*3 7.5 C 0 km/h
162 02-03-2003 08:02:37 7.5 C 7.36 g/m*3 7.5 C 0 km/h
163 02-03-2003 08:08:11 7.3 C 7.19 g/m*3 7.3 C 0 km/h
164 02-03-2003 08:08:37 7.3 C 7.19 g/m*3 7.3 C 0 km/h
165 02-03-2003 08:14:11 7.5 C 7.28 g/m*3 7.5 C 0 km/h
166 02-03-2003 08:14:37 7.5 C 7.28 g/m*3 7.5 C 0 km/h
167 02-03-2003 08:20:11 7.5 C 7.28 g/m*3 7.5 C 0 km/h
168 02-03-2003 08:20:37 7.5 C 7.28 g/m*3 7.5 C 0 km/h
169 02-03-2003 08:26:11 7.4 C 7.24 g/m*3 7.4 C 0 km/h
170 02-03-2003 08:26:37 7.4 C 7.24 g/m*3 7.4 C 0 km/h
171 02-03-2003 08:32:11 7.5 C 7.28 g/m*3 7.5 C 0 km/h
172 02-03-2003 08:32:37 7.5 C 7.28 g/m*3 7.5 C 0 km/h
173 02-03-2003 08:38:11 7.6 C 7.33 g/m*3 7.6 C 0 km/h
174 02-03-2003 08:38:37 7.6 C 7.33 g/m*3 7.6 C 0 km/h
175 02-03-2003 08:44:11 7.6 C 7.33 g/m*3 7.6 C 0 km/h
Sensor: Nr:Datum:Temp:Abs-Feuchte:Windchill:Wind:
Aussen-T/F 176 02-03-2003 08:44:37 7.6 C 7.33 g/m*3 7.6 C 0 km/h
177 02-03-2003 08:50:11 7.7 C 7.38 g/m*3 7.7 C 0 km/h
178 02-03-2003 08:50:37 7.7 C 7.38 g/m*3 7.7 C 0 km/h
179 02-03-2003 08:56:11 7.8 C 7.43 g/m*3 7.8 C 0 km/h
180 02-03-2003 08:56:37 7.8 C 7.43 g/m*3 7.8 C 0 km/h
181 02-03-2003 09:02:11 7.7 C 7.38 g/m*3 7.7 C 0 km/h
182 02-03-2003 09:02:37 7.7 C 7.38 g/m*3 7.7 C 0 km/h
183 02-03-2003 09:08:11 7.9 C 7.47 g/m*3 7.9 C 0 km/h
184 02-03-2003 09:08:37 7.9 C 7.47 g/m*3 7.9 C 0 km/h
185 02-03-2003 09:14:11 8.1 C 7.57 g/m*3 8.1 C 0 km/h
186 02-03-2003 09:14:37 8.1 C 7.57 g/m*3 8.1 C 0 km/h
187 02-03-2003 09:20:11 8.2 C 7.62 g/m*3 8.2 C 0 km/h
188 02-03-2003 09:20:37 8.2 C 7.62 g/m*3 8.2 C 0 km/h
189 02-03-2003 09:26:11 8.6 C 7.82 g/m*3 8.6 C 0 km/h
190 02-03-2003 09:26:37 8.6 C 7.82 g/m*3 8.6 C 0 km/h
191 02-03-2003 09:32:11 8.8 C 7.92 g/m*3 8.8 C 0 km/h
192 02-03-2003 09:32:37 8.8 C 7.92 g/m*3 8.8 C 0 km/h
193 02-03-2003 09:38:11 9 C 7.85 g/m*3 9 C 0 km/h
194 02-03-2003 09:38:37 9 C 7.85 g/m*3 9 C 0 km/h
195 02-03-2003 09:44:11 9.1 C 7.9 g/m*3 9.1 C 0 km/h
196 02-03-2003 09:44:37 9.1 C 7.9 g/m*3 9.1 C 0 km/h
197 02-03-2003 09:50:11 9.5 C 8.1 g/m*3 9.5 C 0 km/h
198 02-03-2003 09:50:37 9.5 C 8.1 g/m*3 9.5 C 0 km/h
199 02-03-2003 09:56:11 9.6 C 8.06 g/m*3 9.6 C 0 km/h
200 02-03-2003 09:56:37 9.6 C 8.06 g/m*3 9.6 C 0 km/h
Sensor: Nr:Datum:Temp:Abs-Feuchte:Windchill:Wind:
Aussen-T/F 201 02-03-2003 10:02:11 10.1 C 7.66 g/m*3 10.1 C 0 km/h
202 02-03-2003 10:02:37 10.1 C 7.66 g/m*3 10.1 C 0 km/h
203 02-03-2003 10:08:11 10.2 C 7.52 g/m*3 10.2 C 0 km/h
204 02-03-2003 10:08:37 10.2 C 7.52 g/m*3 10.2 C 0 km/h
205 02-03-2003 10:14:11 10.4 C 7.61 g/m*3 10.4 C 0 km/h
206 02-03-2003 10:14:37 10.4 C 7.61 g/m*3 10.4 C 0 km/h
207 02-03-2003 10:20:11 10.8 C 7.81 g/m*3 10.8 C 0 km/h
208 02-03-2003 10:20:37 10.8 C 7.81 g/m*3 10.8 C 0 km/h
209 02-03-2003 10:26:11 11.1 C 7.96 g/m*3 11.1 C 0 km/h
210 02-03-2003 10:26:37 11.1 C 7.96 g/m*3 11.1 C 0 km/h
211 02-03-2003 10:32:11 11.3 C 7.65 g/m*3 11.3 C 0 km/h
212 02-03-2003 10:32:37 11.3 C 7.65 g/m*3 11.3 C 0 km/h
213 02-03-2003 10:38:11 11.4 C 7.6 g/m*3 11.4 C 0 km/h
214 02-03-2003 10:38:37 11.4 C 7.6 g/m*3 11.4 C 0 km/h
215 02-03-2003 10:44:11 11.5 C 7.44 g/m*3 11.5 C 0 km/h
216 02-03-2003 10:44:37 11.5 C 7.44 g/m*3 11.5 C 0 km/h
217 02-03-2003 10:50:11 11.4 C 7.08 g/m*3 11.4 C 0 km/h
218 02-03-2003 10:50:37 11.4 C 7.08 g/m*3 11.4 C 0 km/h
219 02-03-2003 10:56:11 11.1 C 6.85 g/m*3 11.1 C 0 km/h
220 02-03-2003 10:56:37 11.1 C 6.85 g/m*3 11.1 C 0 km/h
221 02-03-2003 11:02:11 11.2 C 6.99 g/m*3 11.2 C 0 km/h
222 02-03-2003 11:02:37 11.2 C 6.99 g/m*3 11.2 C 0 km/h
223 02-03-2003 11:08:11 11.2 C 6.89 g/m*3 11.2 C 0 km/h
224 02-03-2003 11:08:37 11.2 C 6.89 g/m*3 11.2 C 0 km/h
225 02-03-2003 11:14:11 11.2 C 6.89 g/m*3 11.2 C 0 km/h
Sensor: Nr:Datum:Temp:Abs-Feuchte:Windchill:Wind:
Aussen-T/F 226 02-03-2003 11:14:37 11.2 C 6.89 g/m*3 11.2 C 0 km/h
227 02-03-2003 11:20:11 11.1 C 6.75 g/m*3 11.1 C 0 km/h
228 02-03-2003 11:20:37 11.1 C 6.75 g/m*3 11.1 C 0 km/h
229 02-03-2003 11:26:11 11.2 C 6.79 g/m*3 11.2 C 0 km/h
230 02-03-2003 11:26:37 11.2 C 6.79 g/m*3 11.2 C 0 km/h
231 02-03-2003 11:32:11 11.3 C 6.73 g/m*3 11.3 C 0 km/h
232 02-03-2003 11:32:37 11.3 C 6.73 g/m*3 11.3 C 0 km/h
233 02-03-2003 11:38:11 11.5 C 6.92 g/m*3 11.5 C 0 km/h
234 02-03-2003 11:38:37 11.5 C 6.92 g/m*3 11.5 C 0 km/h
235 02-03-2003 11:44:11 11.8 C 7.05 g/m*3 11.8 C 0 km/h
236 02-03-2003 11:44:37 11.8 C 7.05 g/m*3 11.8 C 0 km/h
237 02-03-2003 11:50:11 11.9 C 6.99 g/m*3 11.9 C 0 km/h
238 02-03-2003 11:50:37 11.9 C 6.99 g/m*3 11.9 C 0 km/h
239 02-03-2003 11:56:11 11.7 C 6.9 g/m*3 11.7 C 0 km/h
240 02-03-2003 11:56:37 11.7 C 6.9 g/m*3 11.7 C 0 km/h
241 02-03-2003 12:02:37 11.3 C 6.94 g/m*3 11.3 C 0 km/h
242 02-03-2003 12:02:54 11.3 C 6.94 g/m*3 11.3 C 0 km/h
243 02-03-2003 12:08:37 11 C 7.01 g/m*3 11 C 0 km/h
244 02-03-2003 12:08:54 11 C 7.01 g/m*3 11 C 0 km/h
245 02-03-2003 12:14:37 10.4 C 7.04 g/m*3 10.4 C 0 km/h
246 02-03-2003 12:14:54 10.4 C 7.04 g/m*3 10.4 C 0 km/h
247 02-03-2003 12:20:37 10.2 C 7.23 g/m*3 10.2 C 0 km/h
248 02-03-2003 12:20:54 10.2 C 7.23 g/m*3 10.2 C 0 km/h
249 02-03-2003 12:26:37 10 C 7.24 g/m*3 10 C 0 km/h
250 02-03-2003 12:26:54 10 C 7.24 g/m*3 10 C 0 km/h
Sensor: Nr:Datum:Temp:Abs-Feuchte:Windchill:Wind:
Aussen-T/F 251 02-03-2003 12:32:37 9.6 C 7.24 g/m*3 9.6 C 0 km/h
252 02-03-2003 12:32:54 9.6 C 7.24 g/m*3 9.6 C 0 km/h
253 02-03-2003 12:38:37 9.7 C 7.56 g/m*3 9.7 C 0 km/h
254 02-03-2003 12:38:54 9.7 C 7.56 g/m*3 9.7 C 0 km/h
255 02-03-2003 12:44:37 10.1 C 7.75 g/m*3 10.1 C 0 km/h
256 02-03-2003 12:44:54 10.1 C 7.75 g/m*3 10.1 C 0 km/h
257 02-03-2003 12:50:37 10.4 C 7.81 g/m*3 10.4 C 0 km/h
258 02-03-2003 12:50:54 10.4 C 7.81 g/m*3 10.4 C 0 km/h
259 02-03-2003 12:56:37 10.5 C 7.66 g/m*3 10.5 C 0 km/h
260 02-03-2003 12:56:54 10.5 C 7.66 g/m*3 10.5 C 0 km/h
261 02-03-2003 13:02:37 10.6 C 7.61 g/m*3 10.6 C 0 km/h
262 02-03-2003 13:02:54 10.6 C 7.61 g/m*3 10.6 C 0 km/h
263 02-03-2003 13:08:37 10.6 C 7.42 g/m*3 10.6 C 0 km/h
264 02-03-2003 13:08:54 10.6 C 7.42 g/m*3 10.6 C 0 km/h
265 02-03-2003 13:14:37 10.7 C 7.27 g/m*3 10.7 C 0 km/h
266 02-03-2003 13:14:54 10.7 C 7.27 g/m*3 10.7 C 0 km/h
267 02-03-2003 13:20:37 11 C 7.61 g/m*3 11 C 0 km/h
268 02-03-2003 13:20:54 11 C 7.61 g/m*3 11 C 0 km/h
269 02-03-2003 13:26:37 11.1 C 7.25 g/m*3 11.1 C 0 km/h
270 02-03-2003 13:26:54 11.1 C 7.25 g/m*3 11.1 C 0 km/h
271 02-03-2003 13:32:37 11.1 C 7.25 g/m*3 11.1 C 0 km/h
272 02-03-2003 13:32:54 11.1 C 7.25 g/m*3 11.1 C 0 km/h
273 02-03-2003 13:38:37 11 C 7.21 g/m*3 11 C 0 km/h
274 02-03-2003 13:38:54 11 C 7.21 g/m*3 11 C 0 km/h
275 02-03-2003 13:44:37 11.1 C 7.55 g/m*3 11.1 C 0 km/h
Sensor: Nr:Datum:Temp:Abs-Feuchte:Windchill:Wind:
Aussen-T/F 276 02-03-2003 13:44:54 11.1 C 7.55 g/m*3 11.1 C 0 km/h
277 02-03-2003 13:50:37 10.8 C 7.61 g/m*3 10.8 C 0 km/h
278 02-03-2003 13:50:54 10.8 C 7.61 g/m*3 10.8 C 0 km/h
279 02-03-2003 13:56:37 10.6 C 7.52 g/m*3 10.6 C 0 km/h
280 02-03-2003 13:56:54 10.6 C 7.52 g/m*3 10.6 C 0 km/h
281 02-03-2003 14:02:37 10.2 C 7.33 g/m*3 10.2 C 0 km/h
282 02-03-2003 14:02:54 10.2 C 7.33 g/m*3 10.2 C 0 km/h
283 02-03-2003 14:08:37 10.2 C 7.33 g/m*3 10.2 C 0 km/h
284 02-03-2003 14:08:54 10.2 C 7.33 g/m*3 10.2 C 0 km/h
285 02-03-2003 14:14:37 9.9 C 7.66 g/m*3 9.9 C 0 km/h
286 02-03-2003 14:14:54 9.9 C 7.66 g/m*3 9.9 C 0 km/h
287 02-03-2003 14:20:37 9.7 C 7.65 g/m*3 9.7 C 0 km/h
288 02-03-2003 14:20:54 9.7 C 7.65 g/m*3 9.7 C 0 km/h
289 02-03-2003 14:26:37 10 C 7.8 g/m*3 10 C 0 km/h
290 02-03-2003 14:26:54 10 C 7.8 g/m*3 10 C 0 km/h
291 02-03-2003 14:32:37 10.1 C 7.56 g/m*3 10.1 C 0 km/h
292 02-03-2003 14:32:54 10.1 C 7.56 g/m*3 10.1 C 0 km/h
293 02-03-2003 14:38:37 10.1 C 7.28 g/m*3 10.1 C 0 km/h
294 02-03-2003 14:38:54 10.1 C 7.28 g/m*3 10.1 C 0 km/h
295 02-03-2003 14:44:37 9.8 C 7.24 g/m*3 9.8 C 0 km/h
296 02-03-2003 14:44:54 9.8 C 7.24 g/m*3 9.8 C 0 km/h
297 02-03-2003 14:50:37 9.6 C 7.15 g/m*3 9.6 C 0 km/h
298 02-03-2003 14:50:54 9.6 C 7.15 g/m*3 9.6 C 0 km/h
299 02-03-2003 14:56:37 9.6 C 7.24 g/m*3 9.6 C 0 km/h
300 02-03-2003 14:56:54 9.6 C 7.24 g/m*3 9.6 C 0 km/h
Sensor: Nr:Datum:Temp:Abs-Feuchte:Windchill:Wind:
Aussen-T/F 301 02-03-2003 15:02:37 9.4 C 7.05 g/m*3 9.4 C 0 km/h
302 02-03-2003 15:02:54 9.4 C 7.05 g/m*3 9.4 C 0 km/h
303 02-03-2003 15:08:10 9.5 C 7.1 g/m*3 9.5 C 0 km/h
304 02-03-2003 15:08:37 9.5 C 7.1 g/m*3 9.5 C 0 km/h
305 02-03-2003 15:14:10 9.6 C 7.33 g/m*3 9.6 C 0 km/h
306 02-03-2003 15:14:37 9.6 C 7.33 g/m*3 9.6 C 0 km/h
307 02-03-2003 15:20:10 9.4 C 6.87 g/m*3 9.4 C 0 km/h
308 02-03-2003 15:20:37 9.4 C 6.87 g/m*3 9.4 C 0 km/h
309 02-03-2003 15:26:10 9.5 C 6.64 g/m*3 9.5 C 0 km/h
310 02-03-2003 15:26:37 9.5 C 6.64 g/m*3 9.5 C 0 km/h
311 02-03-2003 15:32:10 9.7 C 6.64 g/m*3 9.7 C 0 km/h
312 02-03-2003 15:32:37 9.7 C 6.64 g/m*3 9.7 C 0 km/h
313 02-03-2003 15:38:10 9.6 C 6.5 g/m*3 9.6 C 0 km/h
314 02-03-2003 15:38:37 9.6 C 6.5 g/m*3 9.6 C 0 km/h
315 02-03-2003 15:44:10 9.9 C 6.82 g/m*3 9.9 C 0 km/h
316 02-03-2003 15:44:37 9.9 C 6.82 g/m*3 9.9 C 0 km/h
317 02-03-2003 15:50:10 10 C 6.58 g/m*3 10 C 0 km/h
318 02-03-2003 15:50:37 10 C 6.58 g/m*3 10 C 0 km/h
319 02-03-2003 15:56:10 10 C 6.58 g/m*3 10 C 0 km/h
320 02-03-2003 15:56:37 10 C 6.58 g/m*3 10 C 0 km/h
321 02-03-2003 16:02:02 9.9 C 6.54 g/m*3 9.9 C 0 km/h
322 02-03-2003 16:02:37 9.9 C 6.54 g/m*3 9.9 C 0 km/h
323 02-03-2003 16:08:02 9.7 C 6.45 g/m*3 9.7 C 0 km/h
324 02-03-2003 16:08:37 9.7 C 6.45 g/m*3 9.7 C 0 km/h
325 02-03-2003 16:14:02 9.7 C 6.64 g/m*3 9.7 C 0 km/h
Sensor: Nr:Datum:Temp:Abs-Feuchte:Windchill:Wind:
Aussen-T/F 326 02-03-2003 16:14:37 9.7 C 6.64 g/m*3 9.7 C 0 km/h
327 02-03-2003 16:20:02 9.7 C 6.55 g/m*3 9.7 C 0 km/h
328 02-03-2003 16:20:37 9.7 C 6.55 g/m*3 9.7 C 0 km/h
329 02-03-2003 16:26:02 9.7 C 6.55 g/m*3 9.7 C 0 km/h
330 02-03-2003 16:26:37 9.7 C 6.55 g/m*3 9.7 C 0 km/h
331 02-03-2003 16:32:02 9.8 C 6.59 g/m*3 9.8 C 0 km/h
332 02-03-2003 16:32:37 9.8 C 6.59 g/m*3 9.8 C 0 km/h
333 02-03-2003 16:38:02 10.1 C 6.52 g/m*3 10.1 C 0 km/h
334 02-03-2003 16:38:37 10.1 C 6.52 g/m*3 10.1 C 0 km/h
335 02-03-2003 16:44:02 10.1 C 6.34 g/m*3 10.1 C 0 km/h
336 02-03-2003 16:44:37 10.1 C 6.34 g/m*3 10.1 C 0 km/h
337 02-03-2003 16:50:02 10 C 6.3 g/m*3 10 C 0 km/h
338 02-03-2003 16:50:37 10 C 6.3 g/m*3 10 C 0 km/h
339 02-03-2003 16:56:02 9.9 C 6.44 g/m*3 9.9 C 0 km/h
340 02-03-2003 16:56:37 9.9 C 6.44 g/m*3 9.9 C 0 km/h
341 02-03-2003 17:02:02 9.8 C 6.4 g/m*3 9.8 C 0 km/h
342 02-03-2003 17:02:37 9.8 C 6.4 g/m*3 9.8 C 0 km/h
343 02-03-2003 17:08:02 9.7 C 6.55 g/m*3 9.7 C 0 km/h
344 02-03-2003 17:08:37 9.7 C 6.55 g/m*3 9.7 C 0 km/h
345 02-03-2003 17:14:02 9.6 C 6.32 g/m*3 9.6 C 0 km/h
346 02-03-2003 17:14:37 9.6 C 6.32 g/m*3 9.6 C 0 km/h
347 02-03-2003 17:20:02 9.6 C 6.32 g/m*3 9.6 C 0 km/h
348 02-03-2003 17:20:37 9.6 C 6.32 g/m*3 9.6 C 0 km/h
349 02-03-2003 17:26:02 9.5 C 6.28 g/m*3 9.5 C 0 km/h
350 02-03-2003 17:26:37 9.5 C 6.28 g/m*3 9.5 C 0 km/h
Sensor: Nr:Datum:Temp:Abs-Feuchte:Windchill:Wind:
Aussen-T/F 351 02-03-2003 17:32:02 9.3 C 6.2 g/m*3 9.3 C 0 km/h
352 02-03-2003 17:32:37 9.3 C 6.2 g/m*3 9.3 C 0 km/h
353 02-03-2003 17:38:02 9.2 C 6.16 g/m*3 9.2 C 0 km/h
354 02-03-2003 17:38:37 9.2 C 6.16 g/m*3 9.2 C 0 km/h
355 02-03-2003 17:44:32 9.3 C 6.2 g/m*3 9.3 C 0 km/h
356 02-03-2003 17:44:37 9.3 C 6.2 g/m*3 9.3 C 0 km/h
357 02-03-2003 17:50:32 9.3 C 6.2 g/m*3 9.3 C 0 km/h
358 02-03-2003 17:50:37 9.3 C 6.2 g/m*3 9.3 C 0 km/h
359 02-03-2003 17:56:37 9.2 C 6.16 g/m*3 9.2 C 0 km/h
360 02-03-2003 18:02:37 9.1 C 6.03 g/m*3 9.1 C 0 km/h
361 02-03-2003 18:08:37 9 C 5.99 g/m*3 9 C 0 km/h
362 02-03-2003 18:14:37 8.9 C 6.04 g/m*3 8.9 C 0 km/h
363 02-03-2003 18:20:37 8.6 C 5.93 g/m*3 8.6 C 0 km/h
364 02-03-2003 18:26:37 8.3 C 5.98 g/m*3 8.3 C 0 km/h
365 02-03-2003 18:32:37 8.2 C 5.95 g/m*3 8.2 C 0 km/h
366 02-03-2003 18:38:37 8.1 C 5.91 g/m*3 8.1 C 0 km/h
367 02-03-2003 18:44:37 8 C 5.87 g/m*3 8 C 0 km/h
368 02-03-2003 18:50:37 7.9 C 6 g/m*3 7.9 C 0 km/h
369 02-03-2003 18:56:37 7.8 C 6.04 g/m*3 7.8 C 0 km/h
370 02-03-2003 19:02:37 7.7 C 6 g/m*3 7.7 C 0 km/h
371 02-03-2003 19:08:37 7.8 C 5.96 g/m*3 7.8 C 0 km/h
372 02-03-2003 19:14:37 7.8 C 6.04 g/m*3 7.8 C 0 km/h
373 02-03-2003 19:20:37 7.7 C 6 g/m*3 7.7 C 0 km/h
374 02-03-2003 19:26:37 7.5 C 6 g/m*3 7.5 C 0 km/h
375 02-03-2003 19:32:37 7.5 C 6 g/m*3 7.5 C 0 km/h
Sensor: Nr:Datum:Temp:Abs-Feuchte:Windchill:Wind:
Aussen-T/F 376 02-03-2003 19:38:37 7.4 C 6.04 g/m*3 7.4 C 0 km/h
377 02-03-2003 19:44:37 7.5 C 6 g/m*3 7.5 C 0 km/h
378 02-03-2003 19:50:37 7.7 C 6 g/m*3 7.7 C 0 km/h
379 02-03-2003 19:56:37 7.6 C 5.88 g/m*3 7.6 C 0 km/h
380 02-03-2003 20:02:37 7.5 C 5.92 g/m*3 7.5 C 0 km/h
381 02-03-2003 20:08:37 7.5 C 5.92 g/m*3 7.5 C 0 km/h
382 02-03-2003 20:14:37 7.5 C 5.92 g/m*3 7.5 C 0 km/h
383 02-03-2003 20:20:37 7.4 C 5.88 g/m*3 7.4 C 0 km/h
384 02-03-2003 20:26:37 7.3 C 5.85 g/m*3 7.3 C 0 km/h
385 02-03-2003 20:32:37 7 C 5.81 g/m*3 7 C 0 km/h
386 02-03-2003 20:38:37 6.9 C 5.85 g/m*3 6.9 C 0 km/h
387 02-03-2003 20:44:37 6.6 C 5.81 g/m*3 6.6 C 0 km/h
388 02-03-2003 20:51:11 6.3 C 5.77 g/m*3 6.3 C 0 km/h
389 02-03-2003 20:57:11 6 C 5.73 g/m*3 6 C 0 km/h
390 02-03-2003 21:03:11 5.9 C 5.77 g/m*3 5.9 C 0 km/h
391 02-03-2003 21:09:11 5.9 C 5.84 g/m*3 5.9 C 0 km/h
392 02-03-2003 21:15:11 6 C 5.81 g/m*3 6 C 0 km/h
393 02-03-2003 21:21:11 6 C 5.81 g/m*3 6 C 0 km/h
394 02-03-2003 21:27:11 5.9 C 5.84 g/m*3 5.9 C 0 km/h
395 02-03-2003 21:33:11 5.9 C 5.84 g/m*3 5.9 C 0 km/h
396 02-03-2003 21:39:11 6 C 5.81 g/m*3 6 C 0 km/h
397 02-03-2003 21:45:11 6 C 5.81 g/m*3 6 C 0 km/h
398 02-03-2003 21:51:11 5.9 C 5.84 g/m*3 5.9 C 0 km/h
399 02-03-2003 21:57:11 5.9 C 5.91 g/m*3 5.9 C 0 km/h
400 02-03-2003 22:03:11 6 C 5.88 g/m*3 6 C 0 km/h
Sensor: Nr:Datum:Temp:Abs-Feuchte:Windchill:Wind:
Aussen-T/F 401 02-03-2003 22:09:11 6.3 C 5.92 g/m*3 6.3 C 0 km/h
402 02-03-2003 22:15:11 6.7 C 6 g/m*3 6.7 C 0 km/h
403 02-03-2003 22:21:11 6.7 C 5.93 g/m*3 6.7 C 0 km/h
404 02-03-2003 22:27:11 6.7 C 5.93 g/m*3 6.7 C 0 km/h
405 02-03-2003 22:39:11 6.8 C 5.89 g/m*3 6.8 C 0 km/h
406 02-03-2003 22:45:11 6.9 C 5.93 g/m*3 6.9 C 0 km/h
407 02-03-2003 22:51:11 6.9 C 5.93 g/m*3 6.9 C 0 km/h
408 02-03-2003 22:57:11 6.8 C 5.81 g/m*3 6.8 C 0 km/h
409 02-03-2003 23:03:11 6.7 C 5.85 g/m*3 6.7 C 0 km/h
410 02-03-2003 23:09:11 6.8 C 5.89 g/m*3 6.8 C 0 km/h
411 02-03-2003 23:15:11 6.8 C 5.89 g/m*3 6.8 C 0 km/h
412 02-03-2003 23:21:11 6.8 C 5.89 g/m*3 6.8 C 0 km/h
413 02-03-2003 23:27:11 6.7 C 5.85 g/m*3 6.7 C 0 km/h
414 02-03-2003 23:33:11 6.7 C 5.85 g/m*3 6.7 C 0 km/h
415 02-03-2003 23:39:11 6.7 C 5.85 g/m*3 6.7 C 0 km/h
416 02-03-2003 23:45:11 6.7 C 5.93 g/m*3 6.7 C 0 km/h
417 02-03-2003 23:51:11 6.7 C 5.93 g/m*3 6.7 C 0 km/h
418 02-03-2003 23:57:11 6.5 C 5.85 g/m*3 6.5 C 0 km/h
419 03-03-2003 00:03:11 6.4 C 5.89 g/m*3 6.4 C 0 km/h
420 03-03-2003 00:09:11 6.2 C 5.88 g/m*3 6.2 C 0 km/h
421 03-03-2003 00:15:11 6 C 5.95 g/m*3 6 C 0 km/h
422 03-03-2003 00:21:11 5.8 C 6.09 g/m*3 5.8 C 0 km/h
423 03-03-2003 00:27:11 5.8 C 6.16 g/m*3 5.8 C 0 km/h
424 03-03-2003 00:33:11 5.7 C 6.19 g/m*3 5.7 C 0 km/h
425 03-03-2003 00:39:11 5.6 C 6.22 g/m*3 5.6 C 0 km/h
Sensor: Nr:Datum:Temp:Abs-Feuchte:Windchill:Wind:
Aussen-T/F 426 03-03-2003 00:45:11 5.6 C 6.22 g/m*3 5.6 C 0 km/h
427 03-03-2003 00:51:11 5.6 C 6.22 g/m*3 5.6 C 0 km/h
428 03-03-2003 00:57:11 5.6 C 6.22 g/m*3 5.6 C 0 km/h
429 03-03-2003 01:03:11 5.6 C 6.22 g/m*3 5.6 C 0 km/h
430 03-03-2003 01:09:11 5.6 C 6.22 g/m*3 5.6 C 0 km/h
431 03-03-2003 01:15:11 5.6 C 6.22 g/m*3 5.6 C 0 km/h
432 03-03-2003 01:21:11 5.6 C 6.15 g/m*3 5.6 C 0 km/h
433 03-03-2003 01:27:11 5.5 C 6.11 g/m*3 5.5 C 0 km/h
434 03-03-2003 01:33:11 5.6 C 6.15 g/m*3 5.6 C 0 km/h
435 03-03-2003 01:39:11 5.6 C 6.15 g/m*3 5.6 C 0 km/h
436 03-03-2003 01:45:11 5.6 C 6.15 g/m*3 5.6 C 0 km/h
437 03-03-2003 01:51:11 5.6 C 6.15 g/m*3 5.6 C 0 km/h
438 03-03-2003 01:57:11 5.6 C 6.15 g/m*3 5.6 C 0 km/h
439 03-03-2003 02:03:11 5.6 C 6.15 g/m*3 5.6 C 0 km/h
440 03-03-2003 02:09:11 5.7 C 6.19 g/m*3 5.7 C 0 km/h
441 03-03-2003 02:15:11 5.7 C 6.12 g/m*3 5.7 C 0 km/h
442 03-03-2003 02:21:11 5.7 C 6.12 g/m*3 5.7 C 0 km/h
443 03-03-2003 02:27:11 5.7 C 6.12 g/m*3 5.7 C 0 km/h
444 03-03-2003 02:33:11 5.7 C 6.12 g/m*3 5.7 C 0 km/h
445 03-03-2003 02:39:11 5.7 C 6.12 g/m*3 5.7 C 0 km/h
446 03-03-2003 02:45:11 5.7 C 6.05 g/m*3 5.7 C 0 km/h
447 03-03-2003 02:51:11 5.8 C 6.09 g/m*3 5.8 C 0 km/h
448 03-03-2003 02:57:11 5.8 C 6.09 g/m*3 5.8 C 0 km/h
449 03-03-2003 03:03:11 5.9 C 6.06 g/m*3 5.9 C 0 km/h
450 03-03-2003 03:09:11 5.9 C 5.98 g/m*3 5.9 C 0 km/h
Sensor: Nr:Datum:Temp:Abs-Feuchte:Windchill:Wind:
Aussen-T/F 451 03-03-2003 03:15:11 5.9 C 5.98 g/m*3 5.9 C 0 km/h
452 03-03-2003 03:21:11 5.8 C 5.95 g/m*3 5.8 C 0 km/h
453 03-03-2003 03:27:11 5.8 C 6.02 g/m*3 5.8 C 0 km/h
454 03-03-2003 03:33:11 5.8 C 5.8 g/m*3 5.8 C 0 km/h
455 03-03-2003 03:39:11 5.9 C 5.84 g/m*3 5.9 C 0 km/h
456 03-03-2003 03:45:11 5.8 C 5.8 g/m*3 5.8 C 0 km/h
457 03-03-2003 03:51:11 5.8 C 5.73 g/m*3 5.8 C 0 km/h
458 03-03-2003 03:57:11 5.7 C 5.62 g/m*3 5.7 C 0 km/h
459 03-03-2003 04:03:11 5.7 C 5.62 g/m*3 5.7 C 0 km/h
460 03-03-2003 04:09:11 5.7 C 5.62 g/m*3 5.7 C 0 km/h
461 03-03-2003 04:15:11 5.8 C 5.59 g/m*3 5.8 C 0 km/h
462 03-03-2003 04:21:11 5.7 C 5.55 g/m*3 5.7 C 0 km/h
463 03-03-2003 04:27:11 5.8 C 5.59 g/m*3 5.8 C 0 km/h
464 03-03-2003 04:33:11 5.7 C 5.55 g/m*3 5.7 C 0 km/h
465 03-03-2003 04:39:11 5.7 C 5.55 g/m*3 5.7 C 0 km/h
466 03-03-2003 04:45:11 5.7 C 5.55 g/m*3 5.7 C 0 km/h
467 03-03-2003 04:51:11 5.7 C 5.62 g/m*3 5.7 C 0 km/h
468 03-03-2003 04:57:11 5.7 C 5.62 g/m*3 5.7 C 0 km/h
469 03-03-2003 05:03:11 5.7 C 5.62 g/m*3 5.7 C 0 km/h
470 03-03-2003 05:09:11 5.6 C 5.59 g/m*3 5.6 C 0 km/h
471 03-03-2003 05:15:11 5.6 C 5.51 g/m*3 5.6 C 0 km/h
472 03-03-2003 05:21:11 5.5 C 5.55 g/m*3 5.5 C 0 km/h
473 03-03-2003 05:27:11 5.4 C 5.44 g/m*3 5.4 C 0 km/h
474 03-03-2003 05:33:11 5.3 C 5.48 g/m*3 5.3 C 0 km/h
475 03-03-2003 05:39:11 5.2 C 5.51 g/m*3 5.2 C 0 km/h
Sensor: Nr:Datum:Temp:Abs-Feuchte:Windchill:Wind:
Aussen-T/F 476 03-03-2003 05:45:11 5.1 C 5.54 g/m*3 5.1 C 0 km/h
477 03-03-2003 05:51:11 5.2 C 5.58 g/m*3 5.2 C 0 km/h
478 03-03-2003 05:57:11 5.2 C 5.58 g/m*3 5.2 C 0 km/h
479 03-03-2003 06:03:11 5.1 C 5.54 g/m*3 5.1 C 0 km/h
480 03-03-2003 06:09:11 5.1 C 5.54 g/m*3 5.1 C 0 km/h
481 03-03-2003 06:15:11 5.1 C 5.54 g/m*3 5.1 C 0 km/h
482 03-03-2003 06:21:11 5.1 C 5.61 g/m*3 5.1 C 0 km/h
483 03-03-2003 06:27:11 5 C 5.57 g/m*3 5 C 0 km/h
484 03-03-2003 06:33:11 5 C 5.5 g/m*3 5 C 0 km/h
485 03-03-2003 06:39:11 5 C 5.57 g/m*3 5 C 0 km/h
486 03-03-2003 06:45:11 4.8 C 5.57 g/m*3 4.8 C 0 km/h
487 03-03-2003 06:51:11 4.7 C 5.6 g/m*3 4.7 C 0 km/h
488 03-03-2003 06:57:11 4.7 C 5.6 g/m*3 4.7 C 0 km/h
489 03-03-2003 07:03:11 4.7 C 5.6 g/m*3 4.7 C 0 km/h
490 03-03-2003 07:09:11 4.7 C 5.6 g/m*3 4.7 C 0 km/h
491 03-03-2003 07:15:11 4.7 C 5.66 g/m*3 4.7 C 0 km/h
492 03-03-2003 07:21:11 4.6 C 5.62 g/m*3 4.6 C 0 km/h
493 03-03-2003 07:27:11 4.6 C 5.62 g/m*3 4.6 C 0 km/h
494 03-03-2003 07:33:11 4.6 C 5.69 g/m*3 4.6 C 0 km/h
495 03-03-2003 07:39:11 4.6 C 5.62 g/m*3 4.6 C 0 km/h
496 03-03-2003 07:45:11 4.6 C 5.69 g/m*3 4.6 C 0 km/h
497 03-03-2003 07:51:11 4.5 C 5.65 g/m*3 4.5 C 0 km/h
498 03-03-2003 07:57:11 4.5 C 5.65 g/m*3 4.5 C 0 km/h
499 03-03-2003 08:03:11 4.6 C 5.69 g/m*3 4.6 C 0 km/h
500 03-03-2003 08:09:11 4.7 C 5.73 g/m*3 4.7 C 0 km/h
Sensor: Nr:Datum:Temp:Abs-Feuchte:Windchill:Wind:
Aussen-T/F 501 03-03-2003 08:15:11 4.7 C 5.73 g/m*3 4.7 C 0 km/h
502 03-03-2003 08:21:11 4.8 C 5.7 g/m*3 4.8 C 0 km/h
503 03-03-2003 08:27:11 4.9 C 5.74 g/m*3 4.9 C 0 km/h
504 03-03-2003 08:33:11 5 C 5.71 g/m*3 5 C 0 km/h
505 03-03-2003 08:39:11 5 C 5.71 g/m*3 5 C 0 km/h
506 03-03-2003 08:45:11 5 C 5.64 g/m*3 5 C 0 km/h
507 03-03-2003 08:51:11 5 C 5.64 g/m*3 5 C 0 km/h
508 03-03-2003 08:57:11 4.9 C 5.67 g/m*3 4.9 C 0 km/h
509 03-03-2003 09:03:11 4.9 C 5.74 g/m*3 4.9 C 0 km/h
510 03-03-2003 09:09:11 4.9 C 5.74 g/m*3 4.9 C 0 km/h
511 03-03-2003 09:15:11 4.9 C 5.74 g/m*3 4.9 C 0 km/h
512 03-03-2003 09:21:11 4.9 C 5.81 g/m*3 4.9 C 0 km/h
513 03-03-2003 09:27:11 4.9 C 5.81 g/m*3 4.9 C 0 km/h
514 03-03-2003 09:33:11 4.9 C 5.81 g/m*3 4.9 C 0 km/h
515 03-03-2003 09:39:11 4.9 C 5.81 g/m*3 4.9 C 0 km/h
516 03-03-2003 09:45:11 4.9 C 5.81 g/m*3 4.9 C 0 km/h
517 03-03-2003 09:51:11 4.9 C 5.81 g/m*3 4.9 C 0 km/h
518 03-03-2003 09:57:11 4.9 C 5.81 g/m*3 4.9 C 0 km/h
519 03-03-2003 10:03:11 4.9 C 5.81 g/m*3 4.9 C 0 km/h
520 03-03-2003 10:09:11 4.9 C 5.81 g/m*3 4.9 C 0 km/h
521 03-03-2003 10:15:11 4.9 C 5.81 g/m*3 4.9 C 0 km/h
522 03-03-2003 10:21:11 5 C 5.78 g/m*3 5 C 0 km/h
523 03-03-2003 10:27:11 5 C 5.78 g/m*3 5 C 0 km/h
524 03-03-2003 10:33:11 5 C 5.78 g/m*3 5 C 0 km/h
525 03-03-2003 10:39:11 5.1 C 5.81 g/m*3 5.1 C 0 km/h
Sensor: Nr:Datum:Temp:Abs-Feuchte:Windchill:Wind:
Aussen-T/F 526 03-03-2003 10:45:11 5.1 C 5.75 g/m*3 5.1 C 0 km/h
527 03-03-2003 10:51:11 5.2 C 5.78 g/m*3 5.2 C 0 km/h
528 03-03-2003 10:57:11 5.2 C 5.78 g/m*3 5.2 C 0 km/h
529 03-03-2003 11:03:11 5.3 C 5.82 g/m*3 5.3 C 0 km/h
530 03-03-2003 11:09:11 5.4 C 5.86 g/m*3 5.4 C 0 km/h
531 03-03-2003 11:15:11 5.4 C 5.86 g/m*3 5.4 C 0 km/h
532 03-03-2003 11:21:11 5.4 C 5.79 g/m*3 5.4 C 0 km/h
533 03-03-2003 11:27:11 5.5 C 5.76 g/m*3 5.5 C 0 km/h
534 03-03-2003 11:33:11 5.6 C 5.8 g/m*3 5.6 C 0 km/h
535 03-03-2003 11:39:11 5.6 C 5.73 g/m*3 5.6 C 0 km/h
536 03-03-2003 11:45:11 5.7 C 5.84 g/m*3 5.7 C 0 km/h
537 03-03-2003 11:51:11 5.7 C 5.76 g/m*3 5.7 C 0 km/h
538 03-03-2003 11:57:11 5.7 C 5.76 g/m*3 5.7 C 0 km/h
539 03-03-2003 12:03:25 5.7 C 5.76 g/m*3 5.7 C 0 km/h
540 03-03-2003 12:09:25 5.8 C 5.8 g/m*3 5.8 C 0 km/h
541 03-03-2003 12:15:25 5.7 C 5.69 g/m*3 5.7 C 0 km/h
542 03-03-2003 12:21:25 5.7 C 5.69 g/m*3 5.7 C 0 km/h
543 03-03-2003 12:27:25 5.7 C 5.69 g/m*3 5.7 C 0 km/h
544 03-03-2003 12:33:25 5.7 C 5.69 g/m*3 5.7 C 0 km/h
545 03-03-2003 12:39:25 5.7 C 5.69 g/m*3 5.7 C 0 km/h
546 03-03-2003 12:45:25 5.7 C 5.69 g/m*3 5.7 C 0 km/h
547 03-03-2003 12:51:25 5.7 C 5.69 g/m*3 5.7 C 0 km/h
548 03-03-2003 12:57:25 5.6 C 5.66 g/m*3 5.6 C 0 km/h
549 03-03-2003 13:03:25 5.6 C 5.66 g/m*3 5.6 C 0 km/h
550 03-03-2003 13:09:25 5.6 C 5.73 g/m*3 5.6 C 0 km/h
Sensor: Nr:Datum:Temp:Abs-Feuchte:Windchill:Wind:
Aussen-T/F 551 03-03-2003 13:15:25 5.6 C 5.73 g/m*3 5.6 C 0 km/h
552 03-03-2003 13:21:25 5.6 C 5.73 g/m*3 5.6 C 0 km/h
553 03-03-2003 13:27:25 5.6 C 5.66 g/m*3 5.6 C 0 km/h
554 03-03-2003 13:33:25 5.6 C 5.66 g/m*3 5.6 C 0 km/h
555 03-03-2003 13:39:25 5.6 C 5.73 g/m*3 5.6 C 0 km/h
556 03-03-2003 13:45:25 5.6 C 5.73 g/m*3 5.6 C 0 km/h
557 03-03-2003 13:51:25 5.6 C 5.73 g/m*3 5.6 C 0 km/h
558 03-03-2003 13:57:25 5.6 C 5.73 g/m*3 5.6 C 0 km/h
559 03-03-2003 14:03:25 5.7 C 5.76 g/m*3 5.7 C 0 km/h
560 03-03-2003 14:09:25 5.7 C 5.76 g/m*3 5.7 C 0 km/h
561 03-03-2003 14:15:25 5.7 C 5.76 g/m*3 5.7 C 0 km/h
562 03-03-2003 14:21:25 5.7 C 5.76 g/m*3 5.7 C 0 km/h
563 03-03-2003 14:27:25 5.7 C 5.69 g/m*3 5.7 C 0 km/h
564 03-03-2003 14:33:25 5.7 C 5.76 g/m*3 5.7 C 0 km/h
565 03-03-2003 14:39:25 5.8 C 5.8 g/m*3 5.8 C 0 km/h
566 03-03-2003 14:45:11 5.8 C 5.8 g/m*3 5.8 C 0 km/h
567 03-03-2003 14:51:11 5.8 C 5.8 g/m*3 5.8 C 0 km/h
568 03-03-2003 14:57:11 5.8 C 5.8 g/m*3 5.8 C 0 km/h
569 03-03-2003 15:03:11 5.8 C 5.8 g/m*3 5.8 C 0 km/h
570 03-03-2003 15:09:11 5.8 C 5.8 g/m*3 5.8 C 0 km/h
571 03-03-2003 15:15:11 5.8 C 5.8 g/m*3 5.8 C 0 km/h
572 03-03-2003 15:21:11 5.8 C 5.8 g/m*3 5.8 C 0 km/h
573 03-03-2003 15:27:11 5.8 C 5.8 g/m*3 5.8 C 0 km/h
574 03-03-2003 15:33:11 5.8 C 5.8 g/m*3 5.8 C 0 km/h
575 03-03-2003 15:39:11 5.8 C 5.8 g/m*3 5.8 C 0 km/h
Sensor: Nr:Datum:Temp:Abs-Feuchte:Windchill:Wind:
Aussen-T/F 576 03-03-2003 15:45:11 6.1 C 5.7 g/m*3 6.1 C 0 km/h
577 03-03-2003 15:51:11 6.1 C 5.7 g/m*3 6.1 C 0 km/h
578 03-03-2003 15:57:11 6.2 C 5.81 g/m*3 6.2 C 0 km/h
579 03-03-2003 16:09:10 6.3 C 5.85 g/m*3 6.3 C 0 km/h
580 03-03-2003 16:15:10 6.5 C 5.85 g/m*3 6.5 C 0 km/h
581 03-03-2003 16:21:10 6.5 C 5.85 g/m*3 6.5 C 0 km/h
582 03-03-2003 16:27:10 6.5 C 5.85 g/m*3 6.5 C 0 km/h
583 03-03-2003 16:33:10 6.5 C 5.85 g/m*3 6.5 C 0 km/h
584 03-03-2003 16:39:10 6.5 C 5.85 g/m*3 6.5 C 0 km/h
585 03-03-2003 16:45:10 6.5 C 5.85 g/m*3 6.5 C 0 km/h
586 03-03-2003 16:51:10 6.5 C 5.85 g/m*3 6.5 C 0 km/h
587 03-03-2003 16:57:10 6.3 C 5.77 g/m*3 6.3 C 0 km/h
588 03-03-2003 17:03:10 6.3 C 5.77 g/m*3 6.3 C 0 km/h
589 03-03-2003 17:09:10 6.3 C 5.77 g/m*3 6.3 C 0 km/h
590 03-03-2003 17:15:10 6 C 5.66 g/m*3 6 C 0 km/h
591 03-03-2003 17:21:10 6 C 5.66 g/m*3 6 C 0 km/h
592 03-03-2003 17:27:10 6 C 5.66 g/m*3 6 C 0 km/h
593 03-03-2003 17:33:10 6 C 5.66 g/m*3 6 C 0 km/h
594 03-03-2003 17:39:10 6 C 5.66 g/m*3 6 C 0 km/h
595 03-03-2003 17:51:10 6 C 5.66 g/m*3 6 C 0 km/h
596 03-03-2003 17:57:10 6 C 5.66 g/m*3 6 C 0 km/h
597 03-03-2003 18:03:10 5.8 C 5.73 g/m*3 5.8 C 0 km/h
598 03-03-2003 18:09:10 5.8 C 5.73 g/m*3 5.8 C 0 km/h
599 03-03-2003 18:15:10 5.7 C 5.69 g/m*3 5.7 C 0 km/h
600 03-03-2003 18:21:10 5.7 C 5.62 g/m*3 5.7 C 0 km/h
Sensor: Nr:Datum:Temp:Abs-Feuchte:Windchill:Wind:
Aussen-T/F 601 03-03-2003 18:27:10 5.7 C 5.62 g/m*3 5.7 C 0 km/h
602 03-03-2003 18:33:10 5.7 C 5.62 g/m*3 5.7 C 0 km/h
603 03-03-2003 18:39:10 5.7 C 5.62 g/m*3 5.7 C 0 km/h
604 03-03-2003 18:45:10 5.7 C 5.62 g/m*3 5.7 C 0 km/h
605 03-03-2003 18:51:10 5.5 C 5.69 g/m*3 5.5 C 0 km/h
606 03-03-2003 18:57:10 5.5 C 5.69 g/m*3 5.5 C 0 km/h
607 03-03-2003 19:03:10 5.5 C 5.69 g/m*3 5.5 C 0 km/h
608 03-03-2003 19:09:10 5.5 C 5.69 g/m*3 5.5 C 0 km/h
609 03-03-2003 19:15:10 5.4 C 5.58 g/m*3 5.4 C 0 km/h
610 03-03-2003 19:21:10 5.4 C 5.58 g/m*3 5.4 C 0 km/h
611 03-03-2003 19:27:10 5.4 C 5.65 g/m*3 5.4 C 0 km/h
612 03-03-2003 19:33:10 5.3 C 5.61 g/m*3 5.3 C 0 km/h
613 03-03-2003 19:39:10 5.3 C 5.61 g/m*3 5.3 C 0 km/h
614 03-03-2003 19:45:10 5.2 C 5.65 g/m*3 5.2 C 0 km/h
615 03-03-2003 19:51:10 5.2 C 5.65 g/m*3 5.2 C 0 km/h
616 03-03-2003 19:57:10 5.2 C 5.65 g/m*3 5.2 C 0 km/h
617 03-03-2003 20:04:10 5.2 C 5.65 g/m*3 5.2 C 0 km/h
618 03-03-2003 20:10:10 5.2 C 5.65 g/m*3 5.2 C 0 km/h
619 03-03-2003 20:16:10 5.2 C 5.65 g/m*3 5.2 C 0 km/h
620 03-03-2003 20:22:10 5.1 C 5.54 g/m*3 5.1 C 0 km/h
621 03-03-2003 20:28:10 5.2 C 5.65 g/m*3 5.2 C 0 km/h
622 03-03-2003 20:34:10 5.2 C 5.65 g/m*3 5.2 C 0 km/h
623 03-03-2003 20:40:10 5.2 C 5.65 g/m*3 5.2 C 0 km/h
624 03-03-2003 20:46:10 5.2 C 5.65 g/m*3 5.2 C 0 km/h
625 03-03-2003 20:52:10 5.1 C 5.61 g/m*3 5.1 C 0 km/h
Sensor: Nr:Datum:Temp:Abs-Feuchte:Windchill:Wind:
Aussen-T/F 626 03-03-2003 20:58:10 5.1 C 5.61 g/m*3 5.1 C 0 km/h
627 03-03-2003 21:04:10 5.1 C 5.61 g/m*3 5.1 C 0 km/h
628 03-03-2003 21:10:10 5 C 5.57 g/m*3 5 C 0 km/h
629 03-03-2003 21:16:10 5 C 5.64 g/m*3 5 C 0 km/h
630 03-03-2003 21:22:10 5 C 5.64 g/m*3 5 C 0 km/h
631 03-03-2003 21:28:10 5 C 5.64 g/m*3 5 C 0 km/h
632 03-03-2003 21:34:10 5 C 5.64 g/m*3 5 C 0 km/h
633 03-03-2003 21:40:10 5 C 5.57 g/m*3 5 C 0 km/h
634 03-03-2003 21:46:10 4.9 C 5.6 g/m*3 4.9 C 0 km/h
635 03-03-2003 21:52:10 4.9 C 5.6 g/m*3 4.9 C 0 km/h
636 03-03-2003 21:58:10 4.9 C 5.6 g/m*3 4.9 C 0 km/h
637 03-03-2003 22:04:10 4.9 C 5.6 g/m*3 4.9 C 0 km/h
638 03-03-2003 22:10:10 4.9 C 5.6 g/m*3 4.9 C 0 km/h
639 03-03-2003 22:16:10 4.9 C 5.6 g/m*3 4.9 C 0 km/h
640 03-03-2003 22:22:10 4.8 C 5.57 g/m*3 4.8 C 0 km/h
641 03-03-2003 22:28:10 4.8 C 5.57 g/m*3 4.8 C 0 km/h
642 03-03-2003 22:34:10 4.8 C 5.63 g/m*3 4.8 C 0 km/h
643 03-03-2003 22:40:10 4.8 C 5.63 g/m*3 4.8 C 0 km/h
644 03-03-2003 22:46:10 4.8 C 5.63 g/m*3 4.8 C 0 km/h
645 03-03-2003 22:52:10 4.7 C 5.6 g/m*3 4.7 C 0 km/h
646 03-03-2003 22:58:10 4.7 C 5.6 g/m*3 4.7 C 0 km/h
647 03-03-2003 23:04:10 4.7 C 5.6 g/m*3 4.7 C 0 km/h
648 03-03-2003 23:10:10 4.7 C 5.6 g/m*3 4.7 C 0 km/h
649 03-03-2003 23:16:10 4.7 C 5.6 g/m*3 4.7 C 0 km/h
650 03-03-2003 23:22:10 4.7 C 5.6 g/m*3 4.7 C 0 km/h
Sensor: Nr:Datum:Temp:Abs-Feuchte:Windchill:Wind:
Aussen-T/F 651 03-03-2003 23:28:10 4.7 C 5.6 g/m*3 4.7 C 0 km/h
652 03-03-2003 23:34:10 4.6 C 5.56 g/m*3 4.6 C 0 km/h
653 03-03-2003 23:40:10 4.6 C 5.56 g/m*3 4.6 C 0 km/h
654 03-03-2003 23:46:10 4.6 C 5.56 g/m*3 4.6 C 0 km/h
655 03-03-2003 23:52:10 4.6 C 5.56 g/m*3 4.6 C 0 km/h
656 03-03-2003 23:58:10 4.6 C 5.56 g/m*3 4.6 C 0 km/h
657 04-03-2003 00:04:10 4.6 C 5.56 g/m*3 4.6 C 0 km/h
658 04-03-2003 00:10:10 4.6 C 5.56 g/m*3 4.6 C 0 km/h
659 04-03-2003 00:16:10 4.6 C 5.56 g/m*3 4.6 C 0 km/h
660 04-03-2003 00:22:10 4.6 C 5.56 g/m*3 4.6 C 0 km/h
661 04-03-2003 00:28:10 4.6 C 5.56 g/m*3 4.6 C 0 km/h
662 04-03-2003 00:34:10 4.6 C 5.56 g/m*3 4.6 C 0 km/h
663 04-03-2003 00:40:10 4.5 C 5.52 g/m*3 4.5 C 0 km/h
664 04-03-2003 00:46:10 4.5 C 5.52 g/m*3 4.5 C 0 km/h
665 04-03-2003 00:52:10 4.5 C 5.52 g/m*3 4.5 C 0 km/h
666 04-03-2003 00:58:10 4.6 C 5.56 g/m*3 4.6 C 0 km/h
667 04-03-2003 01:04:10 4.6 C 5.56 g/m*3 4.6 C 0 km/h
668 04-03-2003 01:10:10 4.5 C 5.52 g/m*3 4.5 C 0 km/h
669 04-03-2003 01:16:10 4.6 C 5.56 g/m*3 4.6 C 0 km/h
670 04-03-2003 01:22:10 4.5 C 5.52 g/m*3 4.5 C 0 km/h
671 04-03-2003 01:28:10 4.5 C 5.52 g/m*3 4.5 C 0 km/h
672 04-03-2003 01:34:10 4.5 C 5.52 g/m*3 4.5 C 0 km/h
673 04-03-2003 01:40:10 4.5 C 5.52 g/m*3 4.5 C 0 km/h
674 04-03-2003 01:46:10 4.5 C 5.52 g/m*3 4.5 C 0 km/h
675 04-03-2003 01:52:10 4.5 C 5.52 g/m*3 4.5 C 0 km/h
Sensor: Nr:Datum:Temp:Abs-Feuchte:Windchill:Wind:
Aussen-T/F 676 04-03-2003 01:58:10 4.5 C 5.52 g/m*3 4.5 C 0 km/h
677 04-03-2003 02:04:10 4.5 C 5.52 g/m*3 4.5 C 0 km/h
678 04-03-2003 02:10:10 4.5 C 5.52 g/m*3 4.5 C 0 km/h
679 04-03-2003 02:16:10 4.5 C 5.52 g/m*3 4.5 C 0 km/h
680 04-03-2003 02:22:10 4.5 C 5.52 g/m*3 4.5 C 0 km/h
681 04-03-2003 02:28:10 4.5 C 5.52 g/m*3 4.5 C 0 km/h
682 04-03-2003 02:34:10 4.4 C 5.48 g/m*3 4.4 C 0 km/h
683 04-03-2003 02:40:10 4.4 C 5.48 g/m*3 4.4 C 0 km/h
684 04-03-2003 02:46:10 4.4 C 5.48 g/m*3 4.4 C 0 km/h
685 04-03-2003 02:52:10 4.4 C 5.48 g/m*3 4.4 C 0 km/h
686 04-03-2003 02:58:10 4.4 C 5.48 g/m*3 4.4 C 0 km/h
687 04-03-2003 03:04:10 4.3 C 5.45 g/m*3 4.3 C 0 km/h
688 04-03-2003 03:10:10 4.3 C 5.45 g/m*3 4.3 C 0 km/h
689 04-03-2003 03:16:10 4.4 C 5.48 g/m*3 4.4 C 0 km/h
690 04-03-2003 03:22:10 4.3 C 5.45 g/m*3 4.3 C 0 km/h
691 04-03-2003 03:28:10 4.2 C 5.41 g/m*3 4.2 C 0 km/h
692 04-03-2003 03:34:10 4.2 C 5.41 g/m*3 4.2 C 0 km/h
693 04-03-2003 03:40:10 4.2 C 5.48 g/m*3 4.2 C 0 km/h
694 04-03-2003 03:46:10 4.1 C 5.44 g/m*3 4.1 C 0 km/h
695 04-03-2003 03:52:10 4 C 5.4 g/m*3 4 C 0 km/h
696 04-03-2003 03:58:10 4 C 5.4 g/m*3 4 C 0 km/h
697 04-03-2003 04:04:10 4 C 5.4 g/m*3 4 C 0 km/h
698 04-03-2003 04:10:10 3.8 C 5.33 g/m*3 3.8 C 0 km/h
699 04-03-2003 04:16:10 3.6 C 5.26 g/m*3 3.6 C 0 km/h
700 04-03-2003 04:22:10 3.5 C 5.23 g/m*3 3.5 C 0 km/h
Sensor: Nr:Datum:Temp:Abs-Feuchte:Windchill:Wind:
Aussen-T/F 701 04-03-2003 04:28:10 3.2 C 5.06 g/m*3 3.2 C 0 km/h
702 04-03-2003 04:34:10 2.9 C 5.02 g/m*3 2.9 C 0 km/h
703 04-03-2003 04:40:10 2.7 C 4.95 g/m*3 2.7 C 0 km/h
704 04-03-2003 04:46:10 2.6 C 4.92 g/m*3 2.6 C 0 km/h
705 04-03-2003 04:52:10 2.5 C 4.89 g/m*3 2.5 C 0 km/h
706 04-03-2003 04:58:10 2.4 C 4.85 g/m*3 2.4 C 0 km/h
707 04-03-2003 05:04:10 2.3 C 4.82 g/m*3 2.3 C 0 km/h
708 04-03-2003 05:10:10 2.2 C 4.79 g/m*3 2.2 C 0 km/h
709 04-03-2003 05:16:10 2 C 4.72 g/m*3 2 C 0 km/h
710 04-03-2003 05:22:10 1.9 C 4.75 g/m*3 1.9 C 0 km/h
711 04-03-2003 05:28:10 1.8 C 4.71 g/m*3 1.8 C 0 km/h
712 04-03-2003 05:34:10 1.8 C 4.71 g/m*3 1.8 C 0 km/h
713 04-03-2003 05:40:10 1.8 C 4.71 g/m*3 1.8 C 0 km/h
714 04-03-2003 05:46:10 1.7 C 4.68 g/m*3 1.7 C 0 km/h
715 04-03-2003 05:52:10 1.5 C 4.62 g/m*3 1.5 C 0 km/h
716 04-03-2003 05:58:10 1.5 C 4.62 g/m*3 1.5 C 0 km/h
717 04-03-2003 06:04:10 1.5 C 4.62 g/m*3 1.5 C 0 km/h
718 04-03-2003 06:10:10 1.3 C 4.56 g/m*3 1.3 C 0 km/h
719 04-03-2003 06:16:10 1.4 C 4.64 g/m*3 1.4 C 0 km/h
720 04-03-2003 06:22:10 1.4 C 4.64 g/m*3 1.4 C 0 km/h
721 04-03-2003 06:28:10 1.4 C 4.69 g/m*3 1.4 C 0 km/h
722 04-03-2003 06:34:10 1.5 C 4.73 g/m*3 1.5 C 0 km/h
723 04-03-2003 06:40:10 1.5 C 4.73 g/m*3 1.5 C 0 km/h
724 04-03-2003 06:46:10 1.5 C 4.73 g/m*3 1.5 C 0 km/h
725 04-03-2003 06:52:10 1.5 C 4.73 g/m*3 1.5 C 0 km/h
Sensor: Nr:Datum:Temp:Abs-Feuchte:Windchill:Wind:
Aussen-T/F 726 04-03-2003 06:58:10 1.5 C 4.73 g/m*3 1.5 C 0 km/h
727 04-03-2003 07:04:10 1.6 C 4.76 g/m*3 1.6 C 0 km/h
728 04-03-2003 07:10:10 1.5 C 4.73 g/m*3 1.5 C 0 km/h
729 04-03-2003 07:16:10 1.5 C 4.73 g/m*3 1.5 C 0 km/h
730 04-03-2003 07:22:10 1.4 C 4.69 g/m*3 1.4 C 0 km/h
731 04-03-2003 07:28:10 1.4 C 4.75 g/m*3 1.4 C 0 km/h
732 04-03-2003 07:34:10 1.1 C 4.65 g/m*3 1.1 C 0 km/h
733 04-03-2003 07:40:10 1.1 C 4.65 g/m*3 1.1 C 0 km/h
734 04-03-2003 07:46:10 1 C 4.62 g/m*3 1 C 0 km/h
735 04-03-2003 07:52:10 1 C 4.67 g/m*3 1 C 0 km/h
736 04-03-2003 07:58:10 1 C 4.67 g/m*3 1 C 0 km/h
737 04-03-2003 08:04:10 0.9 C 4.69 g/m*3 0.9 C 0 km/h
738 04-03-2003 08:10:10 0.9 C 4.69 g/m*3 0.9 C 0 km/h
739 04-03-2003 08:16:10 1 C 4.72 g/m*3 1 C 0 km/h
740 04-03-2003 08:22:10 1.1 C 4.76 g/m*3 1.1 C 0 km/h
741 04-03-2003 08:28:10 1.1 C 4.76 g/m*3 1.1 C 0 km/h
742 04-03-2003 08:34:10 1.1 C 4.76 g/m*3 1.1 C 0 km/h
743 04-03-2003 08:40:10 1 C 4.67 g/m*3 1 C 0 km/h
744 04-03-2003 08:46:10 1.3 C 4.82 g/m*3 1.3 C 0 km/h
745 04-03-2003 08:52:10 1.5 C 4.89 g/m*3 1.5 C 0 km/h
746 04-03-2003 08:58:10 1.7 C 4.9 g/m*3 1.7 C 0 km/h
747 04-03-2003 09:04:10 1.8 C 4.88 g/m*3 1.8 C 0 km/h
748 04-03-2003 09:10:10 1.9 C 4.91 g/m*3 1.9 C 0 km/h
749 04-03-2003 09:16:10 2 C 4.89 g/m*3 2 C 0 km/h
750 04-03-2003 09:22:10 1.8 C 4.82 g/m*3 1.8 C 0 km/h
Sensor: Nr:Datum:Temp:Abs-Feuchte:Windchill:Wind:
Aussen-T/F 751 04-03-2003 09:28:10 1.8 C 4.82 g/m*3 1.8 C 0 km/h
752 04-03-2003 09:34:10 2.1 C 4.87 g/m*3 2.1 C 0 km/h
753 04-03-2003 09:40:10 2.4 C 4.97 g/m*3 2.4 C 0 km/h
754 04-03-2003 09:46:10 2.7 C 5.07 g/m*3 2.7 C 0 km/h
755 04-03-2003 09:52:10 2.8 C 5.04 g/m*3 2.8 C 0 km/h
756 04-03-2003 09:58:10 2.5 C 4.83 g/m*3 2.5 C 0 km/h
757 04-03-2003 10:04:10 2.6 C 4.86 g/m*3 2.6 C 0 km/h
758 04-03-2003 10:10:10 3 C 4.99 g/m*3 3 C 0 km/h
759 04-03-2003 10:16:10 3.2 C 5.06 g/m*3 3.2 C 0 km/h
760 04-03-2003 10:22:10 3.5 C 5.1 g/m*3 3.5 C 0 km/h
761 04-03-2003 10:28:10 3.7 C 5.11 g/m*3 3.7 C 0 km/h
762 04-03-2003 10:34:10 3.8 C 5.08 g/m*3 3.8 C 0 km/h
763 04-03-2003 10:40:10 3.9 C 5.12 g/m*3 3.9 C 0 km/h
764 04-03-2003 10:46:10 4.1 C 5.12 g/m*3 4.1 C 0 km/h
765 04-03-2003 10:52:10 4.2 C 5.15 g/m*3 4.2 C 0 km/h
766 04-03-2003 10:58:10 4.3 C 5.25 g/m*3 4.3 C 0 km/h
767 04-03-2003 11:04:10 4.3 C 5.25 g/m*3 4.3 C 0 km/h
768 04-03-2003 11:10:10 4.2 C 5.28 g/m*3 4.2 C 0 km/h
769 04-03-2003 11:16:10 4.2 C 5.28 g/m*3 4.2 C 0 km/h
770 04-03-2003 11:22:10 4.5 C 5.39 g/m*3 4.5 C 0 km/h
771 04-03-2003 11:28:10 4.9 C 5.6 g/m*3 4.9 C 0 km/h
772 04-03-2003 11:34:10 5.1 C 5.61 g/m*3 5.1 C 0 km/h
773 04-03-2003 11:40:10 5.8 C 5.8 g/m*3 5.8 C 0 km/h
774 04-03-2003 11:46:10 6.6 C 5.74 g/m*3 6.6 C 0 km/h
775 04-03-2003 11:52:10 7 C 5.66 g/m*3 7 C 0 km/h
Sensor: Nr:Datum:Temp:Abs-Feuchte:Windchill:Wind:
Aussen-T/F 776 04-03-2003 11:58:10 7 C 5.66 g/m*3 7 C 0 km/h
777 04-03-2003 12:04:11 8.1 C 5.66 g/m*3 8.1 C 0 km/h
778 04-03-2003 12:10:11 8.3 C 5.39 g/m*3 8.3 C 0 km/h
779 04-03-2003 12:16:11 8.5 C 5.46 g/m*3 8.5 C 0 km/h
780 04-03-2003 12:22:11 9.1 C 5.32 g/m*3 9.1 C 0 km/h
781 04-03-2003 12:28:11 9.1 C 5.32 g/m*3 9.1 C 0 km/h
782 04-03-2003 12:34:11 9.7 C 5.25 g/m*3 9.7 C 0 km/h
783 04-03-2003 12:40:11 10.1 C 5.11 g/m*3 10.1 C 0 km/h
784 04-03-2003 12:46:11 10.1 C 5.11 g/m*3 10.1 C 0 km/h
785 04-03-2003 12:52:11 10.1 C 5.11 g/m*3 10.1 C 0 km/h
786 04-03-2003 12:58:11 10.4 C 5.01 g/m*3 10.4 C 0 km/h
787 04-03-2003 13:04:11 10.7 C 5.3 g/m*3 10.7 C 0 km/h
788 04-03-2003 13:10:11 10.5 C 4.85 g/m*3 10.5 C 0 km/h
789 04-03-2003 13:16:11 11 C 5.1 g/m*3 11 C 0 km/h
790 04-03-2003 13:22:11 11.1 C 5.04 g/m*3 11.1 C 0 km/h
791 04-03-2003 13:28:11 11.5 C 4.96 g/m*3 11.5 C 0 km/h
792 04-03-2003 13:34:11 11.7 C 5.02 g/m*3 11.7 C 0 km/h
793 04-03-2003 13:40:11 11.6 C 4.78 g/m*3 11.6 C 0 km/h
794 04-03-2003 13:46:11 11.4 C 4.72 g/m*3 11.4 C 0 km/h
795 04-03-2003 13:52:11 11.4 C 4.72 g/m*3 11.4 C 0 km/h
796 04-03-2003 13:58:11 11.4 C 4.82 g/m*3 11.4 C 0 km/h
797 04-03-2003 14:04:11 11.5 C 4.85 g/m*3 11.5 C 0 km/h
798 04-03-2003 14:10:11 11.8 C 4.84 g/m*3 11.8 C 0 km/h
799 04-03-2003 14:16:11 12.2 C 4.96 g/m*3 12.2 C 0 km/h
800 04-03-2003 14:22:11 12.1 C 4.61 g/m*3 12.1 C 0 km/h
Sensor: Nr:Datum:Temp:Abs-Feuchte:Windchill:Wind:
Aussen-T/F 801 04-03-2003 14:28:11 12.2 C 4.75 g/m*3 12.2 C 0 km/h
802 04-03-2003 14:34:11 12.6 C 4.76 g/m*3 12.6 C 0 km/h
803 04-03-2003 14:40:11 12.7 C 4.68 g/m*3 12.7 C 0 km/h
804 04-03-2003 14:46:11 13 C 4.76 g/m*3 13 C 0 km/h
805 04-03-2003 14:52:11 12.8 C 4.59 g/m*3 12.8 C 0 km/h
806 04-03-2003 14:58:11 12.6 C 4.65 g/m*3 12.6 C 0 km/h
807 04-03-2003 15:04:11 12.5 C 4.73 g/m*3 12.5 C 0 km/h
808 04-03-2003 15:10:11 12.7 C 4.68 g/m*3 12.7 C 0 km/h
809 04-03-2003 15:16:11 12.9 C 4.73 g/m*3 12.9 C 0 km/h
810 04-03-2003 15:22:11 13.3 C 4.85 g/m*3 13.3 C 0 km/h
811 04-03-2003 15:28:11 13.2 C 4.82 g/m*3 13.2 C 0 km/h
812 04-03-2003 15:34:11 13.6 C 4.94 g/m*3 13.6 C 0 km/h
813 04-03-2003 15:40:11 13.4 C 4.77 g/m*3 13.4 C 0 km/h
814 04-03-2003 15:46:11 13.4 C 4.77 g/m*3 13.4 C 0 km/h
815 04-03-2003 15:52:11 13.3 C 4.74 g/m*3 13.3 C 0 km/h
816 04-03-2003 15:58:11 13.2 C 4.71 g/m*3 13.2 C 0 km/h
817 04-03-2003 16:04:11 13.2 C 4.82 g/m*3 13.2 C 0 km/h
818 04-03-2003 16:10:11 13.3 C 4.74 g/m*3 13.3 C 0 km/h
819 04-03-2003 16:16:11 13.2 C 4.82 g/m*3 13.2 C 0 km/h
820 04-03-2003 16:22:11 13.2 C 4.82 g/m*3 13.2 C 0 km/h
821 04-03-2003 16:28:11 12.6 C 4.76 g/m*3 12.6 C 0 km/h
822 04-03-2003 16:34:11 12.2 C 4.86 g/m*3 12.2 C 0 km/h
823 04-03-2003 16:40:11 12 C 4.9 g/m*3 12 C 0 km/h
824 04-03-2003 16:46:11 11.8 C 5.05 g/m*3 11.8 C 0 km/h
825 04-03-2003 16:52:11 11.7 C 5.02 g/m*3 11.7 C 0 km/h
Sensor: Nr:Datum:Temp:Abs-Feuchte:Windchill:Wind:
Aussen-T/F 826 04-03-2003 16:58:11 11.5 C 5.06 g/m*3 11.5 C 0 km/h
827 04-03-2003 17:04:11 11.3 C 5.1 g/m*3 11.3 C 0 km/h
828 04-03-2003 17:10:11 11.2 C 5.07 g/m*3 11.2 C 0 km/h
829 04-03-2003 17:16:11 11 C 5.1 g/m*3 11 C 0 km/h
830 04-03-2003 17:22:11 10.8 C 5.14 g/m*3 10.8 C 0 km/h
831 04-03-2003 17:28:11 10.7 C 5.11 g/m*3 10.7 C 0 km/h
832 04-03-2003 17:34:11 10.4 C 5.11 g/m*3 10.4 C 0 km/h
833 04-03-2003 17:40:11 10.3 C 5.17 g/m*3 10.3 C 0 km/h
834 04-03-2003 17:46:11 10.1 C 5.2 g/m*3 10.1 C 0 km/h
835 04-03-2003 17:52:11 9.9 C 5.14 g/m*3 9.9 C 0 km/h
836 04-03-2003 17:58:11 9.7 C 5.25 g/m*3 9.7 C 0 km/h
837 04-03-2003 18:04:11 9.6 C 5.31 g/m*3 9.6 C 0 km/h
838 04-03-2003 18:10:11 9.3 C 5.21 g/m*3 9.3 C 0 km/h
839 04-03-2003 18:16:11 9.2 C 5.18 g/m*3 9.2 C 0 km/h
840 04-03-2003 18:22:11 8.8 C 5.48 g/m*3 8.8 C 0 km/h
841 04-03-2003 18:28:11 8.7 C 5.45 g/m*3 8.7 C 0 km/h
842 04-03-2003 18:34:11 8.4 C 5.43 g/m*3 8.4 C 0 km/h
843 04-03-2003 18:40:11 8.4 C 5.34 g/m*3 8.4 C 0 km/h
844 04-03-2003 18:46:11 8.4 C 5.26 g/m*3 8.4 C 0 km/h
845 04-03-2003 18:52:11 8.2 C 5.36 g/m*3 8.2 C 0 km/h
846 04-03-2003 18:58:11 8.2 C 5.28 g/m*3 8.2 C 0 km/h
847 04-03-2003 19:04:11 8.2 C 5.28 g/m*3 8.2 C 0 km/h
848 04-03-2003 19:10:11 8.2 C 5.44 g/m*3 8.2 C 0 km/h
849 04-03-2003 19:16:11 8.2 C 5.36 g/m*3 8.2 C 0 km/h
850 04-03-2003 19:28:11 8.4 C 5.26 g/m*3 8.4 C 0 km/h
Sensor: Nr:Datum:Temp:Abs-Feuchte:Windchill:Wind:
Aussen-T/F 851 04-03-2003 19:34:11 8.5 C 5.29 g/m*3 8.5 C 0 km/h
852 04-03-2003 19:40:11 8.5 C 5.29 g/m*3 8.5 C 0 km/h
853 04-03-2003 19:46:11 8.6 C 5.16 g/m*3 8.6 C 0 km/h
854 04-03-2003 19:52:11 8.7 C 5.28 g/m*3 8.7 C 0 km/h
855 04-03-2003 19:58:11 8.6 C 5.33 g/m*3 8.6 C 0 km/h
856 05-03-2003 16:05:13 13.4 C 6.28 g/m*3 13.4 C 0 km/h
857 05-03-2003 16:11:13 13.4 C 6.28 g/m*3 13.4 C 0 km/h
858 05-03-2003 16:17:13 13.4 C 6.39 g/m*3 13.4 C 0 km/h
859 05-03-2003 16:23:13 13.4 C 6.28 g/m*3 13.4 C 0 km/h
860 05-03-2003 16:29:13 13.4 C 6.28 g/m*3 13.4 C 0 km/h
861 05-03-2003 16:35:13 13.4 C 6.28 g/m*3 13.4 C 0 km/h
862 05-03-2003 16:41:13 13.4 C 6.28 g/m*3 13.4 C 0 km/h
863 05-03-2003 16:47:13 13.5 C 6.55 g/m*3 13.5 C 0 km/h
864 05-03-2003 16:53:13 13.5 C 6.67 g/m*3 13.5 C 0 km/h
865 05-03-2003 16:59:13 13.5 C 6.67 g/m*3 13.5 C 0 km/h
866 05-03-2003 17:05:13 13.5 C 6.67 g/m*3 13.5 C 0 km/h
867 05-03-2003 17:11:13 13.5 C 6.67 g/m*3 13.5 C 0 km/h
868 05-03-2003 17:17:13 13.1 C 6.62 g/m*3 13.1 C 0 km/h
869 05-03-2003 17:23:13 13.1 C 6.62 g/m*3 13.1 C 0 km/h
870 05-03-2003 17:29:13 12.9 C 6.76 g/m*3 12.9 C 0 km/h
871 05-03-2003 17:35:13 12.7 C 6.79 g/m*3 12.7 C 0 km/h
872 05-03-2003 17:41:13 12.5 C 6.82 g/m*3 12.5 C 0 km/h
873 05-03-2003 17:47:13 12.4 C 6.77 g/m*3 12.4 C 0 km/h
874 05-03-2003 17:53:13 12.2 C 6.8 g/m*3 12.2 C 0 km/h
875 05-03-2003 17:59:13 12.1 C 6.76 g/m*3 12.1 C 0 km/h
Sensor: Nr:Datum:Temp:Abs-Feuchte:Windchill:Wind:
Aussen-T/F 876 05-03-2003 18:05:13 12.1 C 6.86 g/m*3 12.1 C 0 km/h
877 05-03-2003 18:11:13 12 C 6.82 g/m*3 12 C 0 km/h
878 05-03-2003 18:17:13 11.8 C 6.84 g/m*3 11.8 C 0 km/h
879 05-03-2003 18:23:13 11.7 C 6.9 g/m*3 11.7 C 0 km/h
880 05-03-2003 18:29:13 11.6 C 6.86 g/m*3 11.6 C 0 km/h
881 05-03-2003 18:35:13 11.5 C 6.92 g/m*3 11.5 C 0 km/h
882 05-03-2003 18:41:13 11.4 C 6.88 g/m*3 11.4 C 0 km/h
883 05-03-2003 18:47:13 11.4 C 6.88 g/m*3 11.4 C 0 km/h
884 05-03-2003 18:53:13 11.3 C 6.94 g/m*3 11.3 C 0 km/h
885 05-03-2003 18:59:13 11.3 C 6.94 g/m*3 11.3 C 0 km/h
886 05-03-2003 19:05:13 11.2 C 6.89 g/m*3 11.2 C 0 km/h
887 05-03-2003 19:11:13 11.3 C 6.94 g/m*3 11.3 C 0 km/h
888 05-03-2003 19:17:13 11.2 C 6.89 g/m*3 11.2 C 0 km/h
889 05-03-2003 19:23:13 11.2 C 6.89 g/m*3 11.2 C 0 km/h
890 05-03-2003 19:29:13 11.3 C 6.94 g/m*3 11.3 C 0 km/h
891 05-03-2003 19:35:13 11.3 C 7.04 g/m*3 11.3 C 0 km/h
892 05-03-2003 19:41:13 11.1 C 6.95 g/m*3 11.1 C 0 km/h
893 05-03-2003 19:47:13 11.1 C 6.95 g/m*3 11.1 C 0 km/h
894 05-03-2003 19:53:13 11.1 C 6.95 g/m*3 11.1 C 0 km/h
895 05-03-2003 19:59:13 11.1 C 6.95 g/m*3 11.1 C 0 km/h
896 05-03-2003 20:06:12 11.1 C 6.95 g/m*3 11.1 C 0 km/h
897 05-03-2003 20:12:12 11.1 C 6.95 g/m*3 11.1 C 0 km/h
898 05-03-2003 20:18:12 11.1 C 6.95 g/m*3 11.1 C 0 km/h
899 05-03-2003 20:24:12 11 C 6.91 g/m*3 11 C 0 km/h
900 05-03-2003 20:30:12 10.9 C 6.96 g/m*3 10.9 C 0 km/h
Sensor: Nr:Datum:Temp:Abs-Feuchte:Windchill:Wind:
Aussen-T/F 901 05-03-2003 20:36:12 10.9 C 6.96 g/m*3 10.9 C 0 km/h
902 05-03-2003 20:42:12 10.9 C 6.96 g/m*3 10.9 C 0 km/h
903 05-03-2003 20:48:12 10.9 C 6.96 g/m*3 10.9 C 0 km/h
904 05-03-2003 20:54:12 10.9 C 6.96 g/m*3 10.9 C 0 km/h
905 05-03-2003 21:06:12 11 C 6.91 g/m*3 11 C 0 km/h
906 05-03-2003 21:12:12 10.9 C 6.96 g/m*3 10.9 C 0 km/h
907 05-03-2003 21:18:12 10.9 C 6.96 g/m*3 10.9 C 0 km/h
908 05-03-2003 21:24:12 10.8 C 6.92 g/m*3 10.8 C 0 km/h
909 05-03-2003 21:30:12 10.9 C 6.96 g/m*3 10.9 C 0 km/h
910 05-03-2003 21:36:12 11 C 6.81 g/m*3 11 C 0 km/h
911 05-03-2003 21:42:12 11 C 6.81 g/m*3 11 C 0 km/h
912 05-03-2003 21:48:12 11 C 6.81 g/m*3 11 C 0 km/h
913 05-03-2003 21:54:12 10.9 C 6.76 g/m*3 10.9 C 0 km/h
914 05-03-2003 22:00:12 10.8 C 6.72 g/m*3 10.8 C 0 km/h
915 05-03-2003 22:06:12 10.5 C 6.69 g/m*3 10.5 C 0 km/h
916 05-03-2003 22:12:12 10.3 C 6.61 g/m*3 10.3 C 0 km/h
917 05-03-2003 22:18:12 10 C 6.58 g/m*3 10 C 0 km/h
918 05-03-2003 22:24:12 10.2 C 6.66 g/m*3 10.2 C 0 km/h
919 05-03-2003 22:30:12 10.2 C 6.66 g/m*3 10.2 C 0 km/h
920 05-03-2003 22:36:12 10.2 C 6.66 g/m*3 10.2 C 0 km/h
921 05-03-2003 22:42:12 10.2 C 6.57 g/m*3 10.2 C 0 km/h
922 05-03-2003 22:48:12 10.2 C 6.57 g/m*3 10.2 C 0 km/h
923 05-03-2003 22:54:12 10.1 C 6.52 g/m*3 10.1 C 0 km/h
924 05-03-2003 23:00:12 10.2 C 6.47 g/m*3 10.2 C 0 km/h
925 05-03-2003 23:06:12 10.2 C 6.57 g/m*3 10.2 C 0 km/h
Sensor: Nr:Datum:Temp:Abs-Feuchte:Windchill:Wind:
Aussen-T/F 926 05-03-2003 23:12:12 10.2 C 6.57 g/m*3 10.2 C 0 km/h
927 05-03-2003 23:18:12 10.1 C 6.52 g/m*3 10.1 C 0 km/h
928 05-03-2003 23:24:12 10.1 C 6.52 g/m*3 10.1 C 0 km/h
929 05-03-2003 23:30:12 9.6 C 6.41 g/m*3 9.6 C 0 km/h
930 05-03-2003 23:36:12 9.4 C 6.42 g/m*3 9.4 C 0 km/h
931 05-03-2003 23:42:12 9.2 C 6.34 g/m*3 9.2 C 0 km/h
932 05-03-2003 23:48:12 9.2 C 6.25 g/m*3 9.2 C 0 km/h
933 05-03-2003 23:54:12 9 C 6.26 g/m*3 9 C 0 km/h
934 06-03-2003 00:00:12 9.1 C 6.3 g/m*3 9.1 C 0 km/h
935 06-03-2003 00:06:12 9.3 C 6.29 g/m*3 9.3 C 0 km/h
936 06-03-2003 00:12:12 9.3 C 6.29 g/m*3 9.3 C 0 km/h
937 06-03-2003 00:18:12 9.5 C 6.28 g/m*3 9.5 C 0 km/h
938 06-03-2003 00:24:12 9.4 C 6.24 g/m*3 9.4 C 0 km/h
939 06-03-2003 00:30:12 9.4 C 6.24 g/m*3 9.4 C 0 km/h
940 06-03-2003 00:36:12 9.4 C 6.24 g/m*3 9.4 C 0 km/h
941 06-03-2003 00:42:12 9.5 C 6.28 g/m*3 9.5 C 0 km/h
942 06-03-2003 00:48:12 9.6 C 6.32 g/m*3 9.6 C 0 km/h
943 06-03-2003 00:54:12 9.7 C 6.27 g/m*3 9.7 C 0 km/h
944 06-03-2003 01:00:12 9.6 C 6.23 g/m*3 9.6 C 0 km/h
945 06-03-2003 01:06:12 9.7 C 6.18 g/m*3 9.7 C 0 km/h
946 06-03-2003 01:12:12 9.8 C 6.22 g/m*3 9.8 C 0 km/h
947 06-03-2003 01:18:12 9.8 C 6.12 g/m*3 9.8 C 0 km/h
948 06-03-2003 01:24:12 9.6 C 6.14 g/m*3 9.6 C 0 km/h
949 06-03-2003 01:30:12 9.9 C 6.16 g/m*3 9.9 C 0 km/h
950 06-03-2003 01:36:12 10 C 5.92 g/m*3 10 C 0 km/h
Sensor: Nr:Datum:Temp:Abs-Feuchte:Windchill:Wind:
Aussen-T/F 951 06-03-2003 01:42:12 10.1 C 5.96 g/m*3 10.1 C 0 km/h
952 06-03-2003 01:48:12 10.1 C 5.96 g/m*3 10.1 C 0 km/h
953 06-03-2003 01:54:12 10 C 5.92 g/m*3 10 C 0 km/h
954 06-03-2003 02:00:12 10 C 5.92 g/m*3 10 C 0 km/h
955 06-03-2003 02:06:12 10.1 C 5.86 g/m*3 10.1 C 0 km/h
956 06-03-2003 02:12:12 10.1 C 5.86 g/m*3 10.1 C 0 km/h
957 06-03-2003 02:18:12 10.1 C 5.86 g/m*3 10.1 C 0 km/h
958 06-03-2003 02:24:12 10 C 5.83 g/m*3 10 C 0 km/h
959 06-03-2003 02:30:12 10.1 C 5.86 g/m*3 10.1 C 0 km/h
960 06-03-2003 02:36:12 10.1 C 5.77 g/m*3 10.1 C 0 km/h
961 06-03-2003 02:42:12 10 C 5.73 g/m*3 10 C 0 km/h
962 06-03-2003 02:48:12 10.2 C 5.71 g/m*3 10.2 C 0 km/h
963 06-03-2003 02:54:12 10.1 C 5.67 g/m*3 10.1 C 0 km/h
964 06-03-2003 03:00:12 10.2 C 5.71 g/m*3 10.2 C 0 km/h
965 06-03-2003 03:06:12 10.2 C 5.61 g/m*3 10.2 C 0 km/h
966 06-03-2003 03:12:12 10.2 C 5.52 g/m*3 10.2 C 0 km/h
967 06-03-2003 03:18:12 10.2 C 5.52 g/m*3 10.2 C 0 km/h
968 06-03-2003 03:24:12 10.1 C 5.48 g/m*3 10.1 C 0 km/h
969 06-03-2003 03:30:12 10 C 5.45 g/m*3 10 C 0 km/h
970 06-03-2003 03:36:12 9.9 C 5.51 g/m*3 9.9 C 0 km/h
971 06-03-2003 03:42:12 9.9 C 5.51 g/m*3 9.9 C 0 km/h
972 06-03-2003 03:48:12 9.8 C 5.47 g/m*3 9.8 C 0 km/h
973 06-03-2003 03:54:12 9.7 C 5.53 g/m*3 9.7 C 0 km/h
974 06-03-2003 04:00:12 9.6 C 5.5 g/m*3 9.6 C 0 km/h
975 06-03-2003 04:06:12 9.6 C 5.5 g/m*3 9.6 C 0 km/h
Sensor: Nr:Datum:Temp:Abs-Feuchte:Windchill:Wind:
Aussen-T/F 976 06-03-2003 04:12:12 9.6 C 5.5 g/m*3 9.6 C 0 km/h
977 06-03-2003 04:18:12 9.6 C 5.5 g/m*3 9.6 C 0 km/h
978 06-03-2003 04:24:12 9.6 C 5.4 g/m*3 9.6 C 0 km/h
979 06-03-2003 04:30:12 9.5 C 5.46 g/m*3 9.5 C 0 km/h
980 06-03-2003 04:36:12 9.4 C 5.43 g/m*3 9.4 C 0 km/h
981 06-03-2003 04:42:12 9.5 C 5.46 g/m*3 9.5 C 0 km/h
982 06-03-2003 04:48:12 9.5 C 5.37 g/m*3 9.5 C 0 km/h
983 06-03-2003 04:54:12 9.4 C 5.43 g/m*3 9.4 C 0 km/h
984 06-03-2003 05:00:12 9.5 C 5.46 g/m*3 9.5 C 0 km/h
985 06-03-2003 05:06:12 9.4 C 5.43 g/m*3 9.4 C 0 km/h
986 06-03-2003 05:12:12 9.4 C 5.43 g/m*3 9.4 C 0 km/h
987 06-03-2003 05:18:12 9.4 C 5.43 g/m*3 9.4 C 0 km/h
988 06-03-2003 05:24:12 9.3 C 5.39 g/m*3 9.3 C 0 km/h
989 06-03-2003 05:30:12 9.3 C 5.39 g/m*3 9.3 C 0 km/h
990 06-03-2003 05:36:12 9.2 C 5.36 g/m*3 9.2 C 0 km/h
991 06-03-2003 05:42:12 9.1 C 5.32 g/m*3 9.1 C 0 km/h
992 06-03-2003 05:48:12 9 C 5.29 g/m*3 9 C 0 km/h
993 06-03-2003 05:54:12 8.7 C 5.36 g/m*3 8.7 C 0 km/h
994 06-03-2003 06:00:12 8.6 C 5.33 g/m*3 8.6 C 0 km/h
995 06-03-2003 06:06:12 8.5 C 5.29 g/m*3 8.5 C 0 km/h
996 06-03-2003 06:12:12 8.4 C 5.34 g/m*3 8.4 C 0 km/h
997 06-03-2003 06:18:12 8.5 C 5.38 g/m*3 8.5 C 0 km/h
998 06-03-2003 06:24:12 8.6 C 5.33 g/m*3 8.6 C 0 km/h
999 06-03-2003 06:30:12 8.7 C 5.36 g/m*3 8.7 C 0 km/h
1000 06-03-2003 06:36:12 8.6 C 5.33 g/m*3 8.6 C 0 km/h
Sensor: Nr:Datum:Temp:Abs-Feuchte:Windchill:Wind:
Aussen-T/F 1001 06-03-2003 06:42:12 8.6 C 5.33 g/m*3 8.6 C 0 km/h
1002 06-03-2003 06:48:12 8.6 C 5.33 g/m*3 8.6 C 0 km/h
1003 06-03-2003 06:54:12 8.6 C 5.33 g/m*3 8.6 C 0 km/h
1004 06-03-2003 07:00:12 8.7 C 5.36 g/m*3 8.7 C 0 km/h
1005 06-03-2003 07:06:12 8.7 C 5.36 g/m*3 8.7 C 0 km/h
1006 06-03-2003 07:12:12 8.6 C 5.33 g/m*3 8.6 C 0 km/h
1007 06-03-2003 07:18:12 8.6 C 5.33 g/m*3 8.6 C 0 km/h
1008 06-03-2003 07:24:12 8.6 C 5.33 g/m*3 8.6 C 0 km/h
1009 06-03-2003 07:30:12 8.6 C 5.33 g/m*3 8.6 C 0 km/h
1010 06-03-2003 07:36:12 8.6 C 5.33 g/m*3 8.6 C 0 km/h
1011 06-03-2003 07:42:12 8.6 C 5.33 g/m*3 8.6 C 0 km/h
1012 06-03-2003 07:48:12 8.7 C 5.36 g/m*3 8.7 C 0 km/h
1013 06-03-2003 07:54:12 8.7 C 5.36 g/m*3 8.7 C 0 km/h
1014 06-03-2003 08:00:12 8.8 C 5.31 g/m*3 8.8 C 0 km/h
1015 06-03-2003 08:06:12 8.7 C 5.28 g/m*3 8.7 C 0 km/h
1016 06-03-2003 08:12:12 9 C 5.38 g/m*3 9 C 0 km/h
1017 06-03-2003 08:18:12 9 C 5.38 g/m*3 9 C 0 km/h
1018 06-03-2003 08:24:12 8.9 C 5.34 g/m*3 8.9 C 0 km/h
1019 06-03-2003 08:30:12 8.9 C 5.34 g/m*3 8.9 C 0 km/h
1020 06-03-2003 08:36:12 8.9 C 5.34 g/m*3 8.9 C 0 km/h
1021 06-03-2003 08:42:12 9 C 5.29 g/m*3 9 C 0 km/h
1022 06-03-2003 08:48:12 9.1 C 5.32 g/m*3 9.1 C 0 km/h
1023 06-03-2003 08:54:12 9.1 C 5.23 g/m*3 9.1 C 0 km/h
1024 06-03-2003 09:00:12 9.2 C 5.36 g/m*3 9.2 C 0 km/h
1025 06-03-2003 09:06:12 9.2 C 5.27 g/m*3 9.2 C 0 km/h
Sensor: Nr:Datum:Temp:Abs-Feuchte:Windchill:Wind:
Aussen-T/F 1026 06-03-2003 09:12:12 9.2 C 5.36 g/m*3 9.2 C 0 km/h
1027 06-03-2003 09:18:12 9.2 C 5.36 g/m*3 9.2 C 0 km/h
1028 06-03-2003 09:24:12 9.4 C 5.34 g/m*3 9.4 C 0 km/h
1029 06-03-2003 09:30:12 9.5 C 5.37 g/m*3 9.5 C 0 km/h
1030 06-03-2003 09:36:12 9.8 C 5.47 g/m*3 9.8 C 0 km/h
1031 06-03-2003 09:42:12 10 C 5.45 g/m*3 10 C 0 km/h
1032 06-03-2003 09:48:12 10.1 C 5.39 g/m*3 10.1 C 0 km/h
1033 06-03-2003 09:54:12 10.2 C 5.42 g/m*3 10.2 C 0 km/h
1034 06-03-2003 10:00:12 10.3 C 5.46 g/m*3 10.3 C 0 km/h
1035 06-03-2003 10:06:12 10.3 C 5.36 g/m*3 10.3 C 0 km/h
1036 06-03-2003 10:12:12 10.2 C 5.33 g/m*3 10.2 C 0 km/h
1037 06-03-2003 10:18:12 10.4 C 5.49 g/m*3 10.4 C 0 km/h
1038 06-03-2003 10:24:12 10.5 C 5.53 g/m*3 10.5 C 0 km/h
1039 06-03-2003 10:30:12 10.5 C 5.63 g/m*3 10.5 C 0 km/h
1040 06-03-2003 10:36:12 10.6 C 5.66 g/m*3 10.6 C 0 km/h
1041 06-03-2003 10:42:12 10.5 C 5.72 g/m*3 10.5 C 0 km/h
1042 06-03-2003 10:48:12 10.3 C 5.65 g/m*3 10.3 C 0 km/h
1043 06-03-2003 10:54:12 9.8 C 5.75 g/m*3 9.8 C 0 km/h
1044 06-03-2003 11:00:12 9.3 C 5.84 g/m*3 9.3 C 0 km/h
1045 06-03-2003 11:06:12 9.1 C 5.86 g/m*3 9.1 C 0 km/h
1046 06-03-2003 11:12:12 8.7 C 5.97 g/m*3 8.7 C 0 km/h
1047 06-03-2003 11:18:12 8.4 C 6.36 g/m*3 8.4 C 0 km/h
1048 06-03-2003 11:24:12 8.2 C 6.45 g/m*3 8.2 C 0 km/h
1049 06-03-2003 11:30:12 8.1 C 6.66 g/m*3 8.1 C 0 km/h
1050 06-03-2003 11:36:12 8.1 C 6.74 g/m*3 8.1 C 0 km/h
Sensor: Nr:Datum:Temp:Abs-Feuchte:Windchill:Wind:
Aussen-T/F 1051 06-03-2003 11:42:12 8.3 C 6.91 g/m*3 8.3 C 0 km/h
1052 06-03-2003 11:48:12 8.4 C 7.04 g/m*3 8.4 C 0 km/h
1053 06-03-2003 11:54:12 8.2 C 6.95 g/m*3 8.2 C 0 km/h
1054 06-03-2003 12:00:12 8.2 C 7.03 g/m*3 8.2 C 0 km/h
1055 06-03-2003 12:06:12 8.3 C 7.16 g/m*3 8.3 C 0 km/h
1056 06-03-2003 12:12:12 8.2 C 7.03 g/m*3 8.2 C 0 km/h
1057 06-03-2003 12:18:12 8.2 C 7.03 g/m*3 8.2 C 0 km/h
1058 06-03-2003 12:24:12 8.2 C 7.03 g/m*3 8.2 C 0 km/h
1059 06-03-2003 12:30:12 8.2 C 7.03 g/m*3 8.2 C 0 km/h
1060 06-03-2003 12:36:12 8.2 C 7.03 g/m*3 8.2 C 0 km/h
1061 06-03-2003 12:42:12 8 C 7.03 g/m*3 8 C 0 km/h
1062 06-03-2003 12:48:12 8.1 C 7.07 g/m*3 8.1 C 0 km/h
1063 06-03-2003 12:54:12 8.1 C 7.07 g/m*3 8.1 C 0 km/h
1064 06-03-2003 13:00:12 8 C 7.11 g/m*3 8 C 0 km/h
1065 06-03-2003 13:06:12 8 C 7.11 g/m*3 8 C 0 km/h
1066 06-03-2003 13:12:12 8.1 C 7.24 g/m*3 8.1 C 0 km/h
1067 06-03-2003 13:18:12 8.1 C 7.24 g/m*3 8.1 C 0 km/h
1068 06-03-2003 13:24:12 7.8 C 7.02 g/m*3 7.8 C 0 km/h
1069 06-03-2003 13:30:12 7.7 C 6.89 g/m*3 7.7 C 0 km/h
1070 06-03-2003 13:36:12 7.6 C 6.85 g/m*3 7.6 C 0 km/h
1071 06-03-2003 13:42:12 7.6 C 6.93 g/m*3 7.6 C 0 km/h
1072 06-03-2003 13:48:12 7.6 C 6.93 g/m*3 7.6 C 0 km/h
1073 06-03-2003 13:54:12 7.4 C 6.6 g/m*3 7.4 C 0 km/h
1074 06-03-2003 14:00:12 7.3 C 6.56 g/m*3 7.3 C 0 km/h
1075 06-03-2003 14:06:12 7.1 C 6.47 g/m*3 7.1 C 0 km/h
Sensor: Nr:Datum:Temp:Abs-Feuchte:Windchill:Wind:
Aussen-T/F 1076 06-03-2003 14:12:12 7 C 6.43 g/m*3 7 C 0 km/h
1077 06-03-2003 14:18:12 7 C 6.43 g/m*3 7 C 0 km/h
1078 06-03-2003 14:24:12 7 C 6.43 g/m*3 7 C 0 km/h
1079 06-03-2003 14:30:12 6.9 C 6.39 g/m*3 6.9 C 0 km/h
1080 06-03-2003 14:36:12 6.8 C 6.42 g/m*3 6.8 C 0 km/h
1081 06-03-2003 14:42:12 6.9 C 6.54 g/m*3 6.9 C 0 km/h
1082 06-03-2003 14:48:12 6.9 C 6.62 g/m*3 6.9 C 0 km/h
1083 06-03-2003 14:54:12 6.9 C 6.62 g/m*3 6.9 C 0 km/h
1084 06-03-2003 15:00:12 6.9 C 6.62 g/m*3 6.9 C 0 km/h
1085 06-03-2003 15:06:12 6.9 C 6.62 g/m*3 6.9 C 0 km/h
1086 06-03-2003 15:12:12 6.9 C 6.62 g/m*3 6.9 C 0 km/h
1087 06-03-2003 15:18:12 6.9 C 6.62 g/m*3 6.9 C 0 km/h
1088 06-03-2003 15:24:12 6.7 C 6.38 g/m*3 6.7 C 0 km/h
1089 06-03-2003 15:30:12 6.7 C 6.38 g/m*3 6.7 C 0 km/h
1090 06-03-2003 15:36:12 6.7 C 6.38 g/m*3 6.7 C 0 km/h
1091 06-03-2003 15:42:12 6.7 C 6.38 g/m*3 6.7 C 0 km/h
1092 06-03-2003 15:48:12 6.7 C 6.38 g/m*3 6.7 C 0 km/h
1093 06-03-2003 15:54:12 6.7 C 6.38 g/m*3 6.7 C 0 km/h
1094 06-03-2003 16:00:03 6.7 C 6.38 g/m*3 6.7 C 0 km/h
1095 06-03-2003 16:06:03 6.7 C 6.38 g/m*3 6.7 C 0 km/h
1096 06-03-2003 16:12:03 6.7 C 6.38 g/m*3 6.7 C 0 km/h
1097 06-03-2003 16:18:03 6.7 C 6.38 g/m*3 6.7 C 0 km/h
1098 06-03-2003 16:24:03 6.7 C 6.38 g/m*3 6.7 C 0 km/h
1099 06-03-2003 16:30:03 6.7 C 6.38 g/m*3 6.7 C 0 km/h
1100 06-03-2003 16:36:03 6.7 C 6.38 g/m*3 6.7 C 0 km/h
Sensor: Nr:Datum:Temp:Abs-Feuchte:Windchill:Wind:
Aussen-T/F 1101 06-03-2003 16:42:03 6.2 C 6.18 g/m*3 6.2 C 0 km/h
1102 06-03-2003 16:48:03 6.2 C 6.18 g/m*3 6.2 C 0 km/h
1103 06-03-2003 16:54:03 6.2 C 6.18 g/m*3 6.2 C 0 km/h
1104 06-03-2003 17:00:03 6.2 C 6.18 g/m*3 6.2 C 0 km/h
1105 06-03-2003 17:06:03 6.2 C 6.18 g/m*3 6.2 C 0 km/h
1106 06-03-2003 17:12:03 6.2 C 6.18 g/m*3 6.2 C 0 km/h
1107 06-03-2003 17:18:03 6.2 C 6.1 g/m*3 6.2 C 0 km/h
1108 06-03-2003 17:24:03 6.2 C 6.1 g/m*3 6.2 C 0 km/h
1109 06-03-2003 17:30:03 6.2 C 6.1 g/m*3 6.2 C 0 km/h
1110 06-03-2003 17:36:03 6.2 C 6.1 g/m*3 6.2 C 0 km/h
1111 06-03-2003 17:42:53 6.1 C 6.14 g/m*3 6.1 C 0 km/h
1112 06-03-2003 17:48:08 6.1 C 6.14 g/m*3 6.1 C 0 km/h
1113 06-03-2003 17:53:12 6 C 6.1 g/m*3 6 C 0 km/h
1114 06-03-2003 18:03:12 6 C 6.1 g/m*3 6 C 0 km/h
1115 06-03-2003 18:13:12 6 C 6.17 g/m*3 6 C 0 km/h
1116 06-03-2003 18:23:12 6 C 6.17 g/m*3 6 C 0 km/h
1117 06-03-2003 18:33:12 5.9 C 6.2 g/m*3 5.9 C 0 km/h
1118 06-03-2003 18:43:12 5.9 C 6.2 g/m*3 5.9 C 0 km/h
1119 06-03-2003 18:53:12 6 C 6.17 g/m*3 6 C 0 km/h
1120 06-03-2003 19:03:12 5.9 C 6.13 g/m*3 5.9 C 0 km/h
1121 06-03-2003 19:13:12 6 C 6.1 g/m*3 6 C 0 km/h
1122 06-03-2003 19:23:12 6 C 6.02 g/m*3 6 C 0 km/h
1123 06-03-2003 19:33:12 6 C 6.02 g/m*3 6 C 0 km/h
1124 06-03-2003 19:43:12 6.3 C 5.92 g/m*3 6.3 C 0 km/h
1125 06-03-2003 19:53:12 6.2 C 5.88 g/m*3 6.2 C 0 km/h
Sensor: Nr:Datum:Temp:Abs-Feuchte:Windchill:Wind:
Aussen-T/F 1126 06-03-2003 20:04:26 6.2 C 5.88 g/m*3 6.2 C 0 km/h
1127 06-03-2003 20:14:26 6.1 C 5.92 g/m*3 6.1 C 0 km/h
1128 06-03-2003 20:24:26 5.9 C 5.98 g/m*3 5.9 C 0 km/h
1129 06-03-2003 20:44:26 6 C 5.88 g/m*3 6 C 0 km/h
1130 06-03-2003 20:54:26 5.7 C 5.84 g/m*3 5.7 C 0 km/h
1131 06-03-2003 21:04:26 6 C 5.88 g/m*3 6 C 0 km/h
1132 06-03-2003 21:14:26 5.5 C 5.76 g/m*3 5.5 C 0 km/h
1133 06-03-2003 21:24:26 5.2 C 5.71 g/m*3 5.2 C 0 km/h
1134 06-03-2003 21:34:26 5.4 C 5.79 g/m*3 5.4 C 0 km/h
1135 06-03-2003 21:44:26 5.6 C 5.8 g/m*3 5.6 C 0 km/h
1136 06-03-2003 21:54:26 5.9 C 5.84 g/m*3 5.9 C 0 km/h
1137 06-03-2003 22:04:26 6 C 5.66 g/m*3 6 C 0 km/h
1138 06-03-2003 22:14:26 5.8 C 5.66 g/m*3 5.8 C 0 km/h
1139 06-03-2003 22:24:26 5.8 C 5.73 g/m*3 5.8 C 0 km/h
1140 06-03-2003 22:34:26 5.6 C 5.66 g/m*3 5.6 C 0 km/h
1141 06-03-2003 22:44:26 5.8 C 5.66 g/m*3 5.8 C 0 km/h
1142 06-03-2003 22:54:26 5.9 C 5.62 g/m*3 5.9 C 0 km/h
1143 06-03-2003 23:04:26 5.9 C 5.48 g/m*3 5.9 C 0 km/h
1144 06-03-2003 23:14:26 5.8 C 5.44 g/m*3 5.8 C 0 km/h
1145 06-03-2003 23:24:26 5.9 C 5.48 g/m*3 5.9 C 0 km/h
1146 06-03-2003 23:34:26 6 C 5.37 g/m*3 6 C 0 km/h
1147 06-03-2003 23:44:26 5.9 C 5.48 g/m*3 5.9 C 0 km/h
1148 06-03-2003 23:54:26 5.9 C 5.48 g/m*3 5.9 C 0 km/h
1149 07-03-2003 00:04:26 5.6 C 5.44 g/m*3 5.6 C 0 km/h
1150 07-03-2003 00:14:26 5.5 C 5.48 g/m*3 5.5 C 0 km/h
Sensor: Nr:Datum:Temp:Abs-Feuchte:Windchill:Wind:
Aussen-T/F 1151 07-03-2003 00:24:26 5.2 C 5.44 g/m*3 5.2 C 0 km/h
1152 07-03-2003 00:34:26 5.1 C 5.4 g/m*3 5.1 C 0 km/h
1153 07-03-2003 00:44:26 4.6 C 5.29 g/m*3 4.6 C 0 km/h
1154 07-03-2003 00:54:26 4.1 C 5.25 g/m*3 4.1 C 0 km/h
1155 07-03-2003 01:04:26 3.7 C 5.17 g/m*3 3.7 C 0 km/h
1156 07-03-2003 01:14:26 3.5 C 5.23 g/m*3 3.5 C 0 km/h
1157 07-03-2003 01:24:26 3.2 C 5.12 g/m*3 3.2 C 0 km/h
1158 07-03-2003 01:34:26 2.9 C 5.08 g/m*3 2.9 C 0 km/h
1159 07-03-2003 01:44:26 2.9 C 5.08 g/m*3 2.9 C 0 km/h
1160 07-03-2003 01:54:26 2.7 C 5.07 g/m*3 2.7 C 0 km/h
1161 07-03-2003 02:04:26 2.4 C 4.91 g/m*3 2.4 C 0 km/h
1162 07-03-2003 02:14:26 2.5 C 5 g/m*3 2.5 C 0 km/h
1163 07-03-2003 02:24:26 2.3 C 4.93 g/m*3 2.3 C 0 km/h
1164 07-03-2003 02:34:26 2.7 C 5.13 g/m*3 2.7 C 0 km/h
1165 07-03-2003 02:44:26 2.7 C 5.19 g/m*3 2.7 C 0 km/h
1166 07-03-2003 02:54:26 3 C 5.23 g/m*3 3 C 0 km/h
1167 07-03-2003 03:04:26 3.1 C 5.27 g/m*3 3.1 C 0 km/h
1168 07-03-2003 03:14:26 3.2 C 5.3 g/m*3 3.2 C 0 km/h
1169 07-03-2003 03:24:26 3.3 C 5.28 g/m*3 3.3 C 0 km/h
1170 07-03-2003 03:34:26 3.3 C 5.22 g/m*3 3.3 C 0 km/h
1171 07-03-2003 03:44:26 3.4 C 5.25 g/m*3 3.4 C 0 km/h
1172 07-03-2003 03:54:26 3.3 C 5.16 g/m*3 3.3 C 0 km/h
1173 07-03-2003 04:04:26 3.4 C 5.19 g/m*3 3.4 C 0 km/h
1174 07-03-2003 04:14:26 3.4 C 5.19 g/m*3 3.4 C 0 km/h
1175 07-03-2003 04:24:26 3.3 C 5.16 g/m*3 3.3 C 0 km/h
Sensor: Nr:Datum:Temp:Abs-Feuchte:Windchill:Wind:
Aussen-T/F 1176 07-03-2003 04:34:26 3.2 C 5.12 g/m*3 3.2 C 0 km/h
1177 07-03-2003 04:44:26 2.9 C 5.02 g/m*3 2.9 C 0 km/h
1178 07-03-2003 04:54:26 2.5 C 4.94 g/m*3 2.5 C 0 km/h
1179 07-03-2003 05:04:26 2.3 C 4.88 g/m*3 2.3 C 0 km/h
1180 07-03-2003 05:14:26 2.1 C 4.81 g/m*3 2.1 C 0 km/h
1181 07-03-2003 05:24:26 1.9 C 4.8 g/m*3 1.9 C 0 km/h
1182 07-03-2003 05:34:26 1.4 C 4.59 g/m*3 1.4 C 0 km/h
1183 07-03-2003 05:44:26 1.2 C 4.58 g/m*3 1.2 C 0 km/h
1184 07-03-2003 05:54:26 1.2 C 4.58 g/m*3 1.2 C 0 km/h
1185 07-03-2003 06:04:26 1.1 C 4.55 g/m*3 1.1 C 0 km/h
1186 07-03-2003 06:14:26 1.2 C 4.63 g/m*3 1.2 C 0 km/h
1187 07-03-2003 06:24:26 1.1 C 4.6 g/m*3 1.1 C 0 km/h
1188 07-03-2003 06:34:26 1.1 C 4.6 g/m*3 1.1 C 0 km/h
1189 07-03-2003 06:44:26 1.2 C 4.68 g/m*3 1.2 C 0 km/h
1190 07-03-2003 06:54:26 1.1 C 4.7 g/m*3 1.1 C 0 km/h
1191 07-03-2003 07:04:26 0.9 C 4.69 g/m*3 0.9 C 0 km/h
1192 07-03-2003 07:14:26 1 C 4.67 g/m*3 1 C 0 km/h
1193 07-03-2003 07:24:26 1 C 4.67 g/m*3 1 C 0 km/h
1194 07-03-2003 07:34:26 1.1 C 4.76 g/m*3 1.1 C 0 km/h
1195 07-03-2003 07:44:26 1.3 C 4.82 g/m*3 1.3 C 0 km/h
1196 07-03-2003 07:54:26 1.7 C 4.95 g/m*3 1.7 C 0 km/h
1197 07-03-2003 08:04:26 1.7 C 4.95 g/m*3 1.7 C 0 km/h
1198 07-03-2003 08:14:26 2.1 C 4.98 g/m*3 2.1 C 0 km/h
1199 07-03-2003 08:24:26 2.3 C 5.05 g/m*3 2.3 C 0 km/h
1200 07-03-2003 08:34:26 2.1 C 4.92 g/m*3 2.1 C 0 km/h
Sensor: Nr:Datum:Temp:Abs-Feuchte:Windchill:Wind:
Aussen-T/F 1201 07-03-2003 08:44:26 2 C 4.89 g/m*3 2 C 0 km/h
1202 07-03-2003 08:54:26 2.3 C 4.99 g/m*3 2.3 C 0 km/h
1203 07-03-2003 09:04:26 2.5 C 5 g/m*3 2.5 C 0 km/h
1204 07-03-2003 09:14:26 2.7 C 5.01 g/m*3 2.7 C 0 km/h
1205 07-03-2003 09:24:26 2.9 C 5.02 g/m*3 2.9 C 0 km/h
1206 07-03-2003 09:34:26 3.3 C 5.1 g/m*3 3.3 C 0 km/h
1207 07-03-2003 09:44:26 3.5 C 5.1 g/m*3 3.5 C 0 km/h
1208 07-03-2003 09:54:26 3.5 C 5.04 g/m*3 3.5 C 0 km/h
1209 07-03-2003 10:04:26 3.6 C 5.01 g/m*3 3.6 C 0 km/h
1210 07-03-2003 10:14:26 3.7 C 5.05 g/m*3 3.7 C 0 km/h
1211 07-03-2003 10:24:26 4.4 C 5.16 g/m*3 4.4 C 0 km/h
1212 07-03-2003 10:34:26 4.9 C 5.27 g/m*3 4.9 C 0 km/h
1213 07-03-2003 10:44:26 5.5 C 5.34 g/m*3 5.5 C 0 km/h
1214 07-03-2003 10:54:26 5.8 C 5.3 g/m*3 5.8 C 0 km/h
1215 07-03-2003 11:04:26 5.8 C 5.37 g/m*3 5.8 C 0 km/h
1216 07-03-2003 11:14:26 5.8 C 5.3 g/m*3 5.8 C 0 km/h
1217 07-03-2003 11:24:26 6.2 C 5.37 g/m*3 6.2 C 0 km/h
1218 07-03-2003 11:34:26 6.6 C 5.51 g/m*3 6.6 C 0 km/h
1219 07-03-2003 11:44:26 6.4 C 5.36 g/m*3 6.4 C 0 km/h
1220 07-03-2003 11:54:26 6.3 C 5.4 g/m*3 6.3 C 0 km/h
1221 07-03-2003 12:04:26 6.9 C 5.85 g/m*3 6.9 C 0 km/h
1222 07-03-2003 12:14:26 7.7 C 5.92 g/m*3 7.7 C 0 km/h
1223 07-03-2003 12:24:26 8.3 C 6.07 g/m*3 8.3 C 0 km/h
1224 07-03-2003 12:34:26 8.9 C 6.04 g/m*3 8.9 C 0 km/h
1225 07-03-2003 12:44:26 8.9 C 5.87 g/m*3 8.9 C 0 km/h
Sensor: Nr:Datum:Temp:Abs-Feuchte:Windchill:Wind:
Aussen-T/F 1226 07-03-2003 12:54:26 9.3 C 5.75 g/m*3 9.3 C 0 km/h
1227 07-03-2003 13:04:26 9.4 C 5.79 g/m*3 9.4 C 0 km/h
1228 07-03-2003 13:14:26 9.7 C 5.72 g/m*3 9.7 C 0 km/h
1229 07-03-2003 13:24:26 10.1 C 5.48 g/m*3 10.1 C 0 km/h
1230 07-03-2003 13:34:26 10.7 C 5.7 g/m*3 10.7 C 0 km/h
1231 07-03-2003 13:44:26 10.8 C 5.54 g/m*3 10.8 C 0 km/h
1232 07-03-2003 13:54:26 11.6 C 5.51 g/m*3 11.6 C 0 km/h
1233 07-03-2003 14:04:26 11.3 C 5.41 g/m*3 11.3 C 0 km/h
1234 07-03-2003 14:14:26 12 C 5.44 g/m*3 12 C 0 km/h
1235 07-03-2003 14:24:26 12.2 C 5.5 g/m*3 12.2 C 0 km/h
1236 07-03-2003 14:34:26 12.1 C 5.25 g/m*3 12.1 C 0 km/h
1237 07-03-2003 14:44:26 11.8 C 5.16 g/m*3 11.8 C 0 km/h
1238 07-03-2003 14:54:26 12 C 5.22 g/m*3 12 C 0 km/h
1239 07-03-2003 15:04:26 12 C 4.9 g/m*3 12 C 0 km/h
1240 07-03-2003 15:14:26 11.7 C 4.92 g/m*3 11.7 C 0 km/h
1241 07-03-2003 15:24:26 11.9 C 5.08 g/m*3 11.9 C 0 km/h
1242 07-03-2003 15:34:26 11.9 C 4.87 g/m*3 11.9 C 0 km/h
1243 07-03-2003 15:44:26 11.7 C 4.71 g/m*3 11.7 C 0 km/h
1244 07-03-2003 15:54:26 11.2 C 4.66 g/m*3 11.2 C 0 km/h
1245 07-03-2003 16:34:08 11 C 4.8 g/m*3 11 C 0 km/h
1246 07-03-2003 16:44:08 11 C 4.8 g/m*3 11 C 0 km/h
1247 07-03-2003 16:54:08 11 C 4.8 g/m*3 11 C 0 km/h
1248 07-03-2003 17:04:08 10.6 C 4.88 g/m*3 10.6 C 0 km/h
1249 07-03-2003 17:14:13 10.4 C 4.92 g/m*3 10.4 C 0 km/h
1250 07-03-2003 17:24:13 10.4 C 4.92 g/m*3 10.4 C 0 km/h
Sensor: Nr:Datum:Temp:Abs-Feuchte:Windchill:Wind:
Aussen-T/F 1251 07-03-2003 17:34:14 9.7 C 4.79 g/m*3 9.7 C 0 km/h
1252 07-03-2003 17:44:14 9.6 C 4.67 g/m*3 9.6 C 0 km/h
1253 07-03-2003 17:54:14 9.1 C 4.7 g/m*3 9.1 C 0 km/h
1254 07-03-2003 18:04:13 8.6 C 5.24 g/m*3 8.6 C 0 km/h
1255 07-03-2003 18:14:13 8.3 C 5.14 g/m*3 8.3 C 0 km/h
1256 07-03-2003 18:24:13 8 C 5.13 g/m*3 8 C 0 km/h
1257 07-03-2003 18:34:13 7.7 C 5.27 g/m*3 7.7 C 0 km/h
1258 07-03-2003 18:44:13 7.4 C 5.09 g/m*3 7.4 C 0 km/h
1259 07-03-2003 18:54:13 7.4 C 4.93 g/m*3 7.4 C 0 km/h
1260 07-03-2003 19:04:15 7.2 C 4.87 g/m*3 7.2 C 0 km/h
1261 07-03-2003 19:14:15 7.3 C 4.98 g/m*3 7.3 C 0 km/h
1262 07-03-2003 19:24:15 7.4 C 4.93 g/m*3 7.4 C 0 km/h
1263 07-03-2003 19:34:15 7.6 C 4.99 g/m*3 7.6 C 0 km/h
1264 07-03-2003 19:44:15 7.3 C 4.98 g/m*3 7.3 C 0 km/h
1265 07-03-2003 19:54:15 7.3 C 5.06 g/m*3 7.3 C 0 km/h
1266 07-03-2003 20:04:14 7.5 C 5.04 g/m*3 7.5 C 0 km/h
1267 07-03-2003 20:14:14 7.5 C 5.04 g/m*3 7.5 C 0 km/h
1268 07-03-2003 20:24:14 7.5 C 5.04 g/m*3 7.5 C 0 km/h
1269 07-03-2003 20:34:14 7.5 C 5.04 g/m*3 7.5 C 0 km/h
1270 07-03-2003 20:44:14 6.5 C 5.1 g/m*3 6.5 C 0 km/h
1271 07-03-2003 20:54:14 6.5 C 5.1 g/m*3 6.5 C 0 km/h
1272 07-03-2003 21:05:12 5.7 C 5.05 g/m*3 5.7 C 0 km/h
1273 07-03-2003 21:15:12 5.2 C 4.89 g/m*3 5.2 C 0 km/h
1274 07-03-2003 21:25:12 5.1 C 4.86 g/m*3 5.1 C 0 km/h
1275 07-03-2003 21:35:12 4.7 C 4.8 g/m*3 4.7 C 0 km/h
Sensor: Nr:Datum:Temp:Abs-Feuchte:Windchill:Wind:
Aussen-T/F 1276 07-03-2003 21:45:12 4.6 C 4.76 g/m*3 4.6 C 0 km/h
1277 07-03-2003 21:55:12 4.4 C 4.77 g/m*3 4.4 C 0 km/h
1278 07-03-2003 22:05:12 4.3 C 4.74 g/m*3 4.3 C 0 km/h
1279 07-03-2003 22:15:12 4.3 C 4.67 g/m*3 4.3 C 0 km/h
1280 07-03-2003 22:25:12 3.8 C 4.64 g/m*3 3.8 C 0 km/h
1281 07-03-2003 22:35:12 3.7 C 4.67 g/m*3 3.7 C 0 km/h
1282 07-03-2003 22:45:12 3.8 C 4.64 g/m*3 3.8 C 0 km/h
1283 07-03-2003 22:55:12 3.7 C 4.61 g/m*3 3.7 C 0 km/h
1284 07-03-2003 23:05:12 3.6 C 4.58 g/m*3 3.6 C 0 km/h
1285 07-03-2003 23:15:12 4.1 C 4.67 g/m*3 4.1 C 0 km/h
1286 07-03-2003 23:25:12 3.8 C 4.64 g/m*3 3.8 C 0 km/h
1287 07-03-2003 23:35:12 3.5 C 4.55 g/m*3 3.5 C 0 km/h
1288 07-03-2003 23:45:12 3.5 C 4.61 g/m*3 3.5 C 0 km/h
1289 07-03-2003 23:55:12 3.5 C 4.61 g/m*3 3.5 C 0 km/h
1290 08-03-2003 00:05:12 3.5 C 4.55 g/m*3 3.5 C 0 km/h
1291 08-03-2003 00:15:12 3.3 C 4.55 g/m*3 3.3 C 0 km/h
1292 08-03-2003 00:25:12 3.1 C 4.55 g/m*3 3.1 C 0 km/h
1293 08-03-2003 00:35:12 3.4 C 4.7 g/m*3 3.4 C 0 km/h
1294 08-03-2003 00:45:12 3.9 C 4.8 g/m*3 3.9 C 0 km/h
1295 08-03-2003 00:55:12 5.4 C 4.67 g/m*3 5.4 C 0 km/h
1296 08-03-2003 01:05:12 5.4 C 4.6 g/m*3 5.4 C 0 km/h
1297 08-03-2003 01:15:12 5.1 C 4.51 g/m*3 5.1 C 0 km/h
1298 08-03-2003 01:25:12 4.8 C 4.56 g/m*3 4.8 C 0 km/h
1299 08-03-2003 01:35:12 5 C 4.48 g/m*3 5 C 0 km/h
1300 08-03-2003 01:45:12 5 C 4.48 g/m*3 5 C 0 km/h
Sensor: Nr:Datum:Temp:Abs-Feuchte:Windchill:Wind:
Aussen-T/F 1301 08-03-2003 01:55:12 5.1 C 4.51 g/m*3 5.1 C 0 km/h
1302 08-03-2003 02:05:12 4.9 C 4.59 g/m*3 4.9 C 0 km/h
1303 08-03-2003 02:15:12 4.7 C 4.6 g/m*3 4.7 C 0 km/h
1304 08-03-2003 02:25:12 4.8 C 4.63 g/m*3 4.8 C 0 km/h
1305 08-03-2003 02:35:12 4.9 C 4.59 g/m*3 4.9 C 0 km/h
1306 08-03-2003 02:45:12 4.6 C 4.57 g/m*3 4.6 C 0 km/h
1307 08-03-2003 02:55:12 4.6 C 4.57 g/m*3 4.6 C 0 km/h
1308 08-03-2003 03:05:12 4.3 C 4.61 g/m*3 4.3 C 0 km/h
1309 08-03-2003 03:15:12 4.1 C 4.61 g/m*3 4.1 C 0 km/h
1310 08-03-2003 03:25:12 4.4 C 4.64 g/m*3 4.4 C 0 km/h
1311 08-03-2003 03:35:12 4.4 C 4.64 g/m*3 4.4 C 0 km/h
1312 08-03-2003 03:45:12 4.2 C 4.64 g/m*3 4.2 C 0 km/h
1313 08-03-2003 03:55:12 4.5 C 4.67 g/m*3 4.5 C 0 km/h
1314 08-03-2003 04:05:12 5.1 C 4.65 g/m*3 5.1 C 0 km/h
1315 08-03-2003 04:15:12 5.5 C 4.64 g/m*3 5.5 C 0 km/h
1316 08-03-2003 04:25:12 5.3 C 4.57 g/m*3 5.3 C 0 km/h
1317 08-03-2003 04:35:12 5.2 C 4.68 g/m*3 5.2 C 0 km/h
1318 08-03-2003 04:45:12 5.2 C 4.68 g/m*3 5.2 C 0 km/h
1319 08-03-2003 04:55:12 5.3 C 4.71 g/m*3 5.3 C 0 km/h
1320 08-03-2003 05:05:12 4.9 C 4.73 g/m*3 4.9 C 0 km/h
1321 08-03-2003 05:15:12 5.2 C 4.82 g/m*3 5.2 C 0 km/h
1322 08-03-2003 05:25:12 5.3 C 4.78 g/m*3 5.3 C 0 km/h
1323 08-03-2003 05:35:12 5.1 C 4.72 g/m*3 5.1 C 0 km/h
1324 08-03-2003 05:45:12 5 C 4.76 g/m*3 5 C 0 km/h
1325 08-03-2003 05:55:12 5.1 C 4.79 g/m*3 5.1 C 0 km/h
Sensor: Nr:Datum:Temp:Abs-Feuchte:Windchill:Wind:
Aussen-T/F 1326 08-03-2003 06:05:12 5.2 C 4.75 g/m*3 5.2 C 0 km/h
1327 08-03-2003 06:15:12 5.4 C 4.81 g/m*3 5.4 C 0 km/h
1328 08-03-2003 06:25:12 5.1 C 4.72 g/m*3 5.1 C 0 km/h
1329 08-03-2003 06:35:12 4.9 C 4.79 g/m*3 4.9 C 0 km/h
1330 08-03-2003 06:45:12 4.5 C 4.73 g/m*3 4.5 C 0 km/h
1331 08-03-2003 06:55:12 4.4 C 4.77 g/m*3 4.4 C 0 km/h
1332 08-03-2003 07:05:12 4.3 C 4.74 g/m*3 4.3 C 0 km/h
1333 08-03-2003 07:15:12 4.3 C 4.8 g/m*3 4.3 C 0 km/h
1334 08-03-2003 07:25:12 4.3 C 4.8 g/m*3 4.3 C 0 km/h
1335 08-03-2003 07:35:12 4.4 C 4.83 g/m*3 4.4 C 0 km/h
1336 08-03-2003 07:45:12 4.8 C 4.83 g/m*3 4.8 C 0 km/h
1337 08-03-2003 07:55:12 5.1 C 4.79 g/m*3 5.1 C 0 km/h
1338 08-03-2003 08:05:12 5.2 C 4.82 g/m*3 5.2 C 0 km/h
1339 08-03-2003 08:15:12 5.2 C 4.82 g/m*3 5.2 C 0 km/h
1340 08-03-2003 08:25:12 5.3 C 4.85 g/m*3 5.3 C 0 km/h
1341 08-03-2003 08:35:12 5.6 C 4.95 g/m*3 5.6 C 0 km/h
1342 08-03-2003 08:45:12 5.8 C 4.94 g/m*3 5.8 C 0 km/h
1343 08-03-2003 08:55:12 6.1 C 4.97 g/m*3 6.1 C 0 km/h
1344 08-03-2003 09:05:12 6.4 C 4.99 g/m*3 6.4 C 0 km/h
1345 08-03-2003 09:15:12 6.6 C 4.98 g/m*3 6.6 C 0 km/h
1346 08-03-2003 09:25:12 6.7 C 4.94 g/m*3 6.7 C 0 km/h
1347 08-03-2003 09:35:12 6.8 C 4.89 g/m*3 6.8 C 0 km/h
1348 08-03-2003 09:45:12 6.9 C 4.93 g/m*3 6.9 C 0 km/h
1349 08-03-2003 09:55:12 7 C 4.88 g/m*3 7 C 0 km/h
1350 08-03-2003 10:05:12 7.2 C 4.95 g/m*3 7.2 C 0 km/h
Sensor: Nr:Datum:Temp:Abs-Feuchte:Windchill:Wind:
Aussen-T/F 1351 08-03-2003 10:15:12 7.4 C 4.93 g/m*3 7.4 C 0 km/h
1352 08-03-2003 10:25:12 7.8 C 4.98 g/m*3 7.8 C 0 km/h
1353 08-03-2003 10:35:12 8.1 C 4.91 g/m*3 8.1 C 0 km/h
1354 08-03-2003 10:45:12 8 C 4.88 g/m*3 8 C 0 km/h
1355 08-03-2003 10:55:12 8 C 4.8 g/m*3 8 C 0 km/h
1356 08-03-2003 11:05:13 8.3 C 4.89 g/m*3 8.3 C 0 km/h
1357 08-03-2003 11:15:13 8.3 C 4.89 g/m*3 8.3 C 0 km/h
1358 08-03-2003 11:25:13 8.3 C 4.89 g/m*3 8.3 C 0 km/h
1359 08-03-2003 11:35:13 8.3 C 4.89 g/m*3 8.3 C 0 km/h
1360 08-03-2003 11:45:13 8.3 C 4.89 g/m*3 8.3 C 0 km/h
1361 08-03-2003 11:55:13 8.3 C 4.89 g/m*3 8.3 C 0 km/h
1362 08-03-2003 12:05:58 8.3 C 4.89 g/m*3 8.3 C 0 km/h
1363 08-03-2003 12:15:06 8.3 C 4.89 g/m*3 8.3 C 0 km/h
1364 08-03-2003 12:25:13 8.3 C 4.89 g/m*3 8.3 C 0 km/h
1365 08-03-2003 12:35:13 8.3 C 4.89 g/m*3 8.3 C 0 km/h
1366 08-03-2003 12:45:13 8.3 C 4.89 g/m*3 8.3 C 0 km/h
1367 08-03-2003 12:55:13 10.1 C 4.54 g/m*3 10.1 C 0 km/h
1368 08-03-2003 13:05:23 10.1 C 4.54 g/m*3 10.1 C 0 km/h
1369 08-03-2003 13:15:23 10.4 C 4.53 g/m*3 10.4 C 0 km/h
1370 08-03-2003 13:25:13 10.4 C 4.53 g/m*3 10.4 C 0 km/h
1371 08-03-2003 13:35:13 10.4 C 4.53 g/m*3 10.4 C 0 km/h
1372 08-03-2003 13:45:13 10.4 C 4.53 g/m*3 10.4 C 0 km/h
1373 08-03-2003 13:55:13 10.4 C 4.53 g/m*3 10.4 C 0 km/h
1374 08-03-2003 14:05:12 11.8 C 4.74 g/m*3 11.8 C 0 km/h
1375 08-03-2003 14:15:12 11.8 C 4.63 g/m*3 11.8 C 0 km/h
Sensor: Nr:Datum:Temp:Abs-Feuchte:Windchill:Wind:
Aussen-T/F 1376 08-03-2003 14:25:12 12.2 C 4.53 g/m*3 12.2 C 0 km/h
1377 08-03-2003 14:35:12 11.7 C 4.39 g/m*3 11.7 C 0 km/h
1378 08-03-2003 14:45:12 12.1 C 4.5 g/m*3 12.1 C 0 km/h
1379 08-03-2003 14:55:12 12.4 C 4.59 g/m*3 12.4 C 0 km/h
1380 08-03-2003 15:05:12 11.7 C 4.5 g/m*3 11.7 C 0 km/h
1381 08-03-2003 15:25:12 11.5 C 4.54 g/m*3 11.5 C 0 km/h
1382 08-03-2003 15:35:12 11.5 C 4.44 g/m*3 11.5 C 0 km/h
1383 08-03-2003 15:45:12 11.5 C 4.44 g/m*3 11.5 C 0 km/h
1384 08-03-2003 15:55:12 11.5 C 4.44 g/m*3 11.5 C 0 km/h
1385 08-03-2003 16:05:11 11.3 C 4.28 g/m*3 11.3 C 0 km/h
1386 08-03-2003 16:15:11 11.4 C 4.41 g/m*3 11.4 C 0 km/h
1387 08-03-2003 16:25:11 11.4 C 4.31 g/m*3 11.4 C 0 km/h
1388 08-03-2003 16:35:11 11.5 C 4.34 g/m*3 11.5 C 0 km/h
1389 08-03-2003 16:45:11 11.5 C 4.34 g/m*3 11.5 C 0 km/h
1390 08-03-2003 16:55:11 11.5 C 4.34 g/m*3 11.5 C 0 km/h
1391 08-03-2003 17:05:12 11.5 C 4.34 g/m*3 11.5 C 0 km/h
1392 08-03-2003 17:15:12 10.8 C 4.35 g/m*3 10.8 C 0 km/h
1393 08-03-2003 17:25:12 10.8 C 4.35 g/m*3 10.8 C 0 km/h
1394 08-03-2003 17:35:12 10.8 C 4.35 g/m*3 10.8 C 0 km/h
1395 08-03-2003 17:45:12 10.8 C 4.35 g/m*3 10.8 C 0 km/h
1396 08-03-2003 17:55:12 10.8 C 4.35 g/m*3 10.8 C 0 km/h
1397 08-03-2003 18:40:12 9.9 C 4.48 g/m*3 9.9 C 0 km/h
1398 08-03-2003 18:52:12 9.8 C 4.55 g/m*3 9.8 C 0 km/h
1399 08-03-2003 19:04:13 9.6 C 4.58 g/m*3 9.6 C 0 km/h
1400 08-03-2003 19:16:13 9.2 C 4.46 g/m*3 9.2 C 0 km/h
Sensor: Nr:Datum:Temp:Abs-Feuchte:Windchill:Wind:
Aussen-T/F 1401 08-03-2003 19:28:13 9.1 C 4.53 g/m*3 9.1 C 0 km/h
1402 08-03-2003 19:40:13 8.9 C 4.64 g/m*3 8.9 C 0 km/h
1403 08-03-2003 19:52:13 8.9 C 4.73 g/m*3 8.9 C 0 km/h
1404 08-03-2003 20:04:13 9 C 4.76 g/m*3 9 C 0 km/h
1405 08-03-2003 20:16:13 8.6 C 4.81 g/m*3 8.6 C 0 km/h
1406 08-03-2003 20:28:13 9 C 4.76 g/m*3 9 C 0 km/h
1407 08-03-2003 20:40:13 9 C 4.76 g/m*3 9 C 0 km/h
1408 08-03-2003 20:52:13 9 C 4.76 g/m*3 9 C 0 km/h
1409 08-03-2003 21:04:12 9 C 4.76 g/m*3 9 C 0 km/h
1410 08-03-2003 21:16:12 9 C 4.76 g/m*3 9 C 0 km/h
1411 08-03-2003 21:40:12 8.8 C 4.87 g/m*3 8.8 C 0 km/h
1412 08-03-2003 21:52:12 8.4 C 4.84 g/m*3 8.4 C 0 km/h
1413 08-03-2003 22:05:13 8.4 C 4.84 g/m*3 8.4 C 0 km/h
1414 08-03-2003 22:17:13 8.7 C 4.84 g/m*3 8.7 C 0 km/h
1415 08-03-2003 22:29:13 8.8 C 4.87 g/m*3 8.8 C 0 km/h
1416 08-03-2003 22:41:13 8.9 C 4.91 g/m*3 8.9 C 0 km/h
1417 08-03-2003 22:53:13 8.8 C 4.87 g/m*3 8.8 C 0 km/h
1418 08-03-2003 23:05:13 8.8 C 4.87 g/m*3 8.8 C 0 km/h
1419 08-03-2003 23:17:13 9 C 4.94 g/m*3 9 C 0 km/h
1420 08-03-2003 23:29:13 9 C 4.94 g/m*3 9 C 0 km/h
1421 08-03-2003 23:41:13 9 C 4.85 g/m*3 9 C 0 km/h
1422 08-03-2003 23:53:13 9 C 4.85 g/m*3 9 C 0 km/h
1423 09-03-2003 00:05:13 9 C 4.85 g/m*3 9 C 0 km/h
1424 09-03-2003 00:17:13 9 C 4.85 g/m*3 9 C 0 km/h
1425 09-03-2003 00:29:13 9 C 4.85 g/m*3 9 C 0 km/h
Sensor: Nr:Datum:Temp:Abs-Feuchte:Windchill:Wind:
Aussen-T/F 1426 09-03-2003 00:41:13 9 C 4.85 g/m*3 9 C 0 km/h
1427 09-03-2003 00:53:13 9 C 4.94 g/m*3 9 C 0 km/h
1428 09-03-2003 01:05:13 8.2 C 5.28 g/m*3 8.2 C 0 km/h
1429 09-03-2003 01:17:13 8 C 5.21 g/m*3 8 C 0 km/h
1430 09-03-2003 01:29:13 8.4 C 5.17 g/m*3 8.4 C 0 km/h
1431 09-03-2003 01:41:13 8.5 C 5.12 g/m*3 8.5 C 0 km/h
1432 09-03-2003 01:53:13 8.6 C 5.16 g/m*3 8.6 C 0 km/h
1433 09-03-2003 02:05:13 8.4 C 5.17 g/m*3 8.4 C 0 km/h
1434 09-03-2003 02:17:13 8 C 5.37 g/m*3 8 C 0 km/h
1435 09-03-2003 02:29:13 7.4 C 5.65 g/m*3 7.4 C 0 km/h
1436 09-03-2003 02:41:13 7.4 C 5.57 g/m*3 7.4 C 0 km/h
1437 09-03-2003 02:53:13 7.5 C 5.44 g/m*3 7.5 C 0 km/h
1438 09-03-2003 03:05:13 7.7 C 5.43 g/m*3 7.7 C 0 km/h
1439 09-03-2003 03:17:13 8 C 5.29 g/m*3 8 C 0 km/h
1440 09-03-2003 03:29:13 8.1 C 5.24 g/m*3 8.1 C 0 km/h
1441 09-03-2003 03:41:13 8 C 5.21 g/m*3 8 C 0 km/h
1442 09-03-2003 03:53:13 8.2 C 5.19 g/m*3 8.2 C 0 km/h
1443 09-03-2003 04:05:13 8.1 C 5.16 g/m*3 8.1 C 0 km/h
1444 09-03-2003 04:17:13 8 C 5.13 g/m*3 8 C 0 km/h
1445 09-03-2003 04:29:13 7.9 C 5.17 g/m*3 7.9 C 0 km/h
1446 09-03-2003 04:41:13 8 C 5.13 g/m*3 8 C 0 km/h
1447 09-03-2003 04:53:13 7.8 C 5.14 g/m*3 7.8 C 0 km/h
1448 09-03-2003 05:05:13 7.8 C 5.14 g/m*3 7.8 C 0 km/h
1449 09-03-2003 05:17:13 7.5 C 5.2 g/m*3 7.5 C 0 km/h
1450 09-03-2003 05:29:13 7.3 C 5.21 g/m*3 7.3 C 0 km/h
Sensor: Nr:Datum:Temp:Abs-Feuchte:Windchill:Wind:
Aussen-T/F 1451 09-03-2003 05:41:13 7.4 C 5.17 g/m*3 7.4 C 0 km/h
1452 09-03-2003 05:53:13 7 C 5.19 g/m*3 7 C 0 km/h
1453 09-03-2003 06:05:13 6.7 C 5.32 g/m*3 6.7 C 0 km/h
1454 09-03-2003 06:17:13 6.8 C 5.35 g/m*3 6.8 C 0 km/h
1455 09-03-2003 06:29:13 6.9 C 5.39 g/m*3 6.9 C 0 km/h
1456 09-03-2003 06:41:13 7 C 5.35 g/m*3 7 C 0 km/h
1457 09-03-2003 06:53:13 7 C 5.27 g/m*3 7 C 0 km/h
1458 09-03-2003 07:05:13 7 C 5.35 g/m*3 7 C 0 km/h
1459 09-03-2003 07:17:13 7 C 5.27 g/m*3 7 C 0 km/h
1460 09-03-2003 07:29:13 7 C 5.27 g/m*3 7 C 0 km/h
1461 09-03-2003 07:41:13 7.1 C 5.23 g/m*3 7.1 C 0 km/h
1462 09-03-2003 07:53:13 7.3 C 5.29 g/m*3 7.3 C 0 km/h
1463 09-03-2003 08:05:13 7.4 C 5.25 g/m*3 7.4 C 0 km/h
1464 09-03-2003 08:17:13 7.7 C 5.27 g/m*3 7.7 C 0 km/h
1465 09-03-2003 08:29:13 7.9 C 5.26 g/m*3 7.9 C 0 km/h
1466 09-03-2003 08:41:13 8.1 C 5.16 g/m*3 8.1 C 0 km/h
1467 09-03-2003 08:53:13 8.3 C 5.14 g/m*3 8.3 C 0 km/h
1468 09-03-2003 09:05:13 8.5 C 5.21 g/m*3 8.5 C 0 km/h
1469 09-03-2003 09:17:13 8.5 C 5.21 g/m*3 8.5 C 0 km/h
1470 09-03-2003 09:29:13 8.6 C 5.24 g/m*3 8.6 C 0 km/h
1471 09-03-2003 09:41:13 8.7 C 5.19 g/m*3 8.7 C 0 km/h
1472 09-03-2003 09:53:13 9 C 5.2 g/m*3 9 C 0 km/h
1473 09-03-2003 10:05:13 9.1 C 5.23 g/m*3 9.1 C 0 km/h
1474 09-03-2003 10:17:13 9.4 C 5.34 g/m*3 9.4 C 0 km/h
1475 09-03-2003 10:29:13 9.5 C 5.28 g/m*3 9.5 C 0 km/h
Sensor: Nr:Datum:Temp:Abs-Feuchte:Windchill:Wind:
Aussen-T/F 1476 09-03-2003 10:41:13 9.5 C 5.28 g/m*3 9.5 C 0 km/h
1477 09-03-2003 10:53:13 9.5 C 5.28 g/m*3 9.5 C 0 km/h
1478 09-03-2003 11:05:12 9.5 C 5.28 g/m*3 9.5 C 0 km/h
1479 09-03-2003 11:17:12 9.5 C 5.28 g/m*3 9.5 C 0 km/h
1480 09-03-2003 11:29:12 9.5 C 5.28 g/m*3 9.5 C 0 km/h
1481 09-03-2003 11:41:12 9.5 C 5.28 g/m*3 9.5 C 0 km/h
1482 09-03-2003 11:53:12 9.5 C 5.28 g/m*3 9.5 C 0 km/h
1483 09-03-2003 12:05:12 9.5 C 5.28 g/m*3 9.5 C 0 km/h
1484 09-03-2003 12:17:12 9.5 C 5.28 g/m*3 9.5 C 0 km/h
1485 09-03-2003 12:29:12 9.5 C 5.28 g/m*3 9.5 C 0 km/h
1486 09-03-2003 12:41:12 9.5 C 5.28 g/m*3 9.5 C 0 km/h
1487 09-03-2003 12:53:12 9.5 C 5.28 g/m*3 9.5 C 0 km/h
1488 09-03-2003 13:05:12 9.5 C 5.28 g/m*3 9.5 C 0 km/h
1489 09-03-2003 13:17:12 9.5 C 5.28 g/m*3 9.5 C 0 km/h
1490 09-03-2003 13:29:12 9.5 C 5.28 g/m*3 9.5 C 0 km/h
1491 09-03-2003 13:41:12 9.5 C 5.28 g/m*3 9.5 C 0 km/h
1492 09-03-2003 13:53:12 9.5 C 5.28 g/m*3 9.5 C 0 km/h
1493 09-03-2003 14:05:12 9.5 C 5.28 g/m*3 9.5 C 0 km/h
1494 09-03-2003 14:17:12 9.5 C 5.28 g/m*3 9.5 C 0 km/h
1495 09-03-2003 14:29:12 9.5 C 5.28 g/m*3 9.5 C 0 km/h
1496 09-03-2003 14:41:12 15.5 C 5.02 g/m*3 15.5 C 0 km/h
1497 09-03-2003 14:53:12 16.1 C 4.93 g/m*3 16.1 C 0 km/h
1498 09-03-2003 15:05:13 15.8 C 4.85 g/m*3 15.8 C 0 km/h
1499 09-03-2003 15:17:13 15.8 C 4.85 g/m*3 15.8 C 0 km/h
1500 09-03-2003 15:29:13 15.9 C 5.01 g/m*3 15.9 C 0 km/h
Sensor: Nr:Datum:Temp:Abs-Feuchte:Windchill:Wind:
Aussen-T/F 1501 09-03-2003 15:41:13 15.9 C 5.01 g/m*3 15.9 C 0 km/h
1502 09-03-2003 15:53:13 16.3 C 4.86 g/m*3 16.3 C 0 km/h
1503 09-03-2003 16:05:12 17 C 4.77 g/m*3 17 C 0 km/h
1504 09-03-2003 16:17:12 17 C 4.77 g/m*3 17 C 0 km/h
1505 09-03-2003 16:29:12 17 C 4.77 g/m*3 17 C 0 km/h
1506 09-03-2003 19:17:19 12.8 C 5.15 g/m*3 12.8 C 0 km/h
1507 09-03-2003 19:25:12 12.8 C 5.15 g/m*3 12.8 C 0 km/h
1508 09-03-2003 19:37:12 11.5 C 5.37 g/m*3 11.5 C 0 km/h
1509 09-03-2003 19:49:12 12 C 5.22 g/m*3 12 C 0 km/h
1510 09-03-2003 20:01:12 13.1 C 5.02 g/m*3 13.1 C 0 km/h
1511 09-03-2003 20:13:12 13.2 C 5.05 g/m*3 13.2 C 0 km/h
1512 09-03-2003 20:25:12 13.2 C 5.05 g/m*3 13.2 C 0 km/h
1513 09-03-2003 20:37:12 13.1 C 5.02 g/m*3 13.1 C 0 km/h
1514 09-03-2003 20:49:12 12.8 C 5.15 g/m*3 12.8 C 0 km/h
1515 09-03-2003 21:01:12 12.8 C 5.26 g/m*3 12.8 C 0 km/h
1516 09-03-2003 21:14:13 12.4 C 5.24 g/m*3 12.4 C 0 km/h
1517 09-03-2003 21:26:13 12.2 C 5.29 g/m*3 12.2 C 0 km/h
1518 09-03-2003 21:38:13 11.9 C 5.4 g/m*3 11.9 C 0 km/h
1519 09-03-2003 21:50:13 11.8 C 5.37 g/m*3 11.8 C 0 km/h
1520 09-03-2003 22:02:13 11.5 C 5.37 g/m*3 11.5 C 0 km/h
1521 09-03-2003 22:14:13 11.3 C 5.41 g/m*3 11.3 C 0 km/h
1522 09-03-2003 22:26:13 11.2 C 5.47 g/m*3 11.2 C 0 km/h
1523 09-03-2003 22:50:13 10.8 C 5.54 g/m*3 10.8 C 0 km/h
1524 09-03-2003 23:02:13 10.6 C 5.56 g/m*3 10.6 C 0 km/h
1525 09-03-2003 23:14:13 10.5 C 5.63 g/m*3 10.5 C 0 km/h
Sensor: Nr:Datum:Temp:Abs-Feuchte:Windchill:Wind:
Aussen-T/F 1526 09-03-2003 23:26:13 10.2 C 5.52 g/m*3 10.2 C 0 km/h
1527 09-03-2003 23:38:13 9.8 C 5.57 g/m*3 9.8 C 0 km/h
1528 09-03-2003 23:50:13 9.4 C 5.52 g/m*3 9.4 C 0 km/h

Legende:
   Min
   Max


Maximal/Minimal-Werte vom 02.03.2003 - 09.03.2003

Sensor Min Max Avg
Temp
(Aussen-T/F)
0.9 °C
04-03-2003  08:04:10
17 °C
09-03-2003  16:05:12
7.77 °C
Abs-Feuchte
(Aussen-T/F)
4.28 g/m*3
08-03-2003  16:05:11
8.1 g/m*3
02-03-2003  09:50:11
5.89 g/m*3
Windchill
(Aussen-T/F)
0.9 C
04-03-2003  08:04:10
17 C
09-03-2003  16:05:12
7.58 C

Die Daten stammen von einer Davis Vantage Pro 2 Wetter-Station und werden unter Linux mit der Software wview2wettercgi und aufbereitet. Alle Angaben erfolgen ohne Gewähr für ihre Vollständigkeit oder Richtigkeit.
Kontakt: Rainer Krienke krienke@uni-koblenz.de . Meine Webseiten an der Uni Koblenz oder privat.
Version: $Revision: 0.78 $